| time (UTC) | temp F | wind direction | speed MPH | gust MPH | rain 1hr in | rain 24hr in | rain mn in | humidity % | barometer mb |
| 20260904083721 | 67 | 219 | 2.0 | 7.0 | 0.00 | 0.00 | 0.00 | 100 | 959.3 |
| 20260904083619 | 67 | 219 | 2.0 | 6.0 | 0.00 | 0.00 | 0.00 | 100 | 959.3 |
| 20260904083416 | 67 | 221 | 2.0 | 6.0 | 0.00 | 0.00 | 0.00 | 100 | 959.4 |
| 20260904083212 | 67 | 223 | 2.0 | 8.0 | 0.00 | 0.00 | 0.00 | 100 | 959.5 |
| 20260904083111 | 67 | 219 | 2.0 | 8.0 | 0.00 | 0.00 | 0.00 | 100 | 959.4 |
| 20260904083009 | 67 | 240 | 2.0 | 8.0 | 0.00 | 0.00 | 0.00 | 100 | 959.5 |
| 20260904082807 | 67 | 250 | 2.0 | 8.0 | 0.00 | 0.00 | 0.00 | 100 | 959.4 |
| 20260904082604 | 67 | 258 | 3.0 | 8.0 | 0.00 | 0.00 | 0.00 | 100 | 959.4 |
| 20260904082503 | 67 | 243 | 2.0 | 8.0 | 0.00 | 0.00 | 0.00 | 100 | 959.4 |
| 20260904082401 | 67 | 243 | 2.0 | 9.0 | 0.00 | 0.00 | 0.00 | 100 | 959.5 |
| 20260904082158 | 67 | 241 | 2.0 | 6.0 | 0.00 | 0.00 | 0.00 | 100 | 959.5 |
| 20260904081955 | 66 | 234 | 1.0 | 9.0 | 0.00 | 0.00 | 0.00 | 100 | 959.5 |
| 20260904081854 | 66 | 218 | 1.0 | 9.0 | 0.00 | 0.00 | 0.00 | 100 | 959.5 |
| 20260904081752 | 66 | 219 | 1.0 | 9.0 | 0.00 | 0.00 | 0.00 | 100 | 959.4 |
| 20260904081549 | 66 | 224 | 2.0 | 8.0 | 0.00 | 0.00 | 0.00 | 100 | 959.5 |
| 20260904081347 | 66 | 241 | 2.0 | 8.0 | 0.00 | 0.00 | 0.00 | 100 | 959.3 |
| 20260904081246 | 66 | 247 | 3.0 | 13.0 | 0.00 | 0.00 | 0.00 | 100 | 959.3 |
| 20260904081144 | 66 | 248 | 4.0 | 13.0 | 0.00 | 0.00 | 0.00 | 100 | 959.4 |
| 20260904080940 | 65 | 245 | 3.0 | 13.0 | 0.00 | 0.00 | 0.00 | 100 | 959.3 |
| 20260904080738 | 66 | 219 | 2.0 | 6.0 | 0.00 | 0.00 | 0.00 | 100 | 959.6 |
| 20260904080637 | 66 | 222 | 1.0 | 6.0 | 0.00 | 0.00 | 0.00 | 100 | 959.5 |
| 20260904080534 | 66 | 236 | 1.0 | 5.0 | 0.00 | 0.00 | 0.00 | 100 | 959.5 |
| 20260904080331 | 66 | 228 | 1.0 | 5.0 | 0.00 | 0.00 | 0.00 | 100 | 959.4 |
| 20260904080128 | 66 | 239 | 1.0 | 8.0 | 0.00 | 0.00 | 0.00 | 100 | 959.4 |
| 20260904080027 | 66 | 243 | 2.0 | 10.0 | 0.00 | 0.00 | 0.00 | 100 | 959.4 |
| 20260904075925 | 66 | 236 | 3.0 | 10.0 | 0.00 | 0.00 | 0.00 | 100 | 959.5 |
| 20260904075722 | 66 | 236 | 4.0 | 14.0 | 0.00 | 0.00 | 0.00 | 100 | 959.4 |
| 20260904075519 | 66 | 242 | 2.0 | 14.0 | 0.00 | 0.00 | 0.00 | 100 | 959.5 |
| 20260904075419 | 67 | 260 | 1.0 | 10.0 | 0.00 | 0.00 | 0.00 | 100 | 959.6 |
| 20260904075316 | 67 | 0 | 1.0 | 9.0 | 0.00 | 0.00 | 0.00 | 100 | 959.5 |
| 20260904075113 | 67 | 238 | 2.0 | 12.0 | 0.00 | 0.00 | 0.00 | 100 | 959.3 |
| 20260904074910 | 67 | 234 | 2.0 | 12.0 | 0.00 | 0.00 | 0.00 | 100 | 959.5 |
| 20260904074706 | 67 | 240 | 2.0 | 13.0 | 0.00 | 0.00 | 0.00 | 100 | 959.5 |
| 20260904074453 | 66 | 251 | 2.0 | 13.0 | 0.00 | 0.00 | 0.00 | 100 | 959.4 |
| 20260904074250 | 66 | 248 | 2.0 | 8.0 | 0.00 | 0.00 | 0.00 | 100 | 959.4 |
| 20260904074149 | 66 | 251 | 2.0 | 8.0 | 0.00 | 0.00 | 0.00 | 100 | 959.4 |
| 20260904074047 | 66 | 264 | 2.0 | 8.0 | 0.00 | 0.00 | 0.00 | 100 | 959.5 |
| 20260904073843 | 65 | 0 | 1.0 | 6.0 | 0.00 | 0.00 | 0.00 | 100 | 959.4 |
| 20260904073640 | 65 | 0 | 1.0 | 8.0 | 0.00 | 0.00 | 0.00 | 100 | 959.4 |
| 20260904073437 | 65 | 220 | 2.0 | 8.0 | 0.00 | 0.00 | 0.00 | 100 | 959.4 |
| 20260904073234 | 65 | 221 | 2.0 | 10.0 | 0.00 | 0.00 | 0.00 | 100 | 959.6 |
| 20260904073031 | 65 | 231 | 1.0 | 10.0 | 0.00 | 0.00 | 0.00 | 100 | 959.5 |
| 20260904072930 | 65 | 218 | 1.0 | 6.0 | 0.00 | 0.00 | 0.00 | 100 | 959.5 |
| 20260904072827 | 65 | 217 | 2.0 | 7.0 | 0.00 | 0.00 | 0.00 | 100 | 959.4 |
| 20260904072624 | 64 | 215 | 2.0 | 9.0 | 0.00 | 0.00 | 0.00 | 100 | 959.6 |
| 20260904072421 | 64 | 217 | 2.0 | 9.0 | 0.00 | 0.00 | 0.00 | 100 | 959.4 |
| 20260904072320 | 64 | 221 | 2.0 | 9.0 | 0.00 | 0.00 | 0.00 | 100 | 959.4 |
| 20260904072218 | 64 | 229 | 2.0 | 8.0 | 0.00 | 0.00 | 0.00 | 100 | 959.6 |
| 20260904072015 | 64 | 235 | 2.0 | 8.0 | 0.00 | 0.00 | 0.00 | 100 | 959.6 |
| 20260904071812 | 64 | 234 | 2.0 | 9.0 | 0.00 | 0.00 | 0.00 | 100 | 959.5 |
| 20260904071711 | 64 | 234 | 2.0 | 12.0 | 0.00 | 0.00 | 0.00 | 100 | 959.6 |
| 20260904071609 | 65 | 230 | 3.0 | 12.0 | 0.00 | 0.00 | 0.00 | 100 | 959.5 |
| 20260904071406 | 65 | 243 | 4.0 | 12.0 | 0.00 | 0.00 | 0.00 | 100 | 959.6 |
| 20260904071202 | 65 | 248 | 3.0 | 11.0 | 0.00 | 0.00 | 0.00 | 100 | 959.6 |
| 20260904070959 | 65 | 255 | 3.0 | 11.0 | 0.00 | 0.00 | 0.00 | 100 | 959.5 |
| 20260904070756 | 65 | 262 | 2.0 | 11.0 | 0.00 | 0.00 | 0.00 | 100 | 959.4 |
| 20260904070553 | 65 | 257 | 2.0 | 14.0 | 0.00 | 0.00 | 0.00 | 100 | 959.4 |
| 20260904070453 | 65 | 246 | 3.0 | 14.0 | 0.00 | 0.00 | 0.00 | 100 | 959.5 |
| 20260904070350 | 65 | 243 | 3.0 | 14.0 | 0.00 | 0.00 | 0.00 | 100 | 959.4 |
| 20260904070146 | 65 | 227 | 3.0 | 11.0 | 0.00 | 0.00 | 0.00 | 100 | 959.4 |
| 20260904065943 | 65 | 223 | 2.0 | 10.0 | 0.00 | 0.00 | 0.00 | 100 | 959.4 |
| 20260904065842 | 64 | 223 | 2.0 | 10.0 | 0.00 | 0.00 | 0.00 | 100 | 959.4 |
| 20260904065740 | 65 | 232 | 2.0 | 10.0 | 0.00 | 0.00 | 0.00 | 100 | 959.3 |
| 20260904065537 | 64 | 227 | 2.0 | 8.0 | 0.00 | 0.00 | 0.00 | 100 | 959.3 |
| 20260904065335 | 64 | 227 | 2.0 | 9.0 | 0.00 | 0.00 | 0.00 | 100 | 959.2 |
| 20260904065234 | 64 | 235 | 2.0 | 9.0 | 0.00 | 0.00 | 0.00 | 100 | 959.2 |
| 20260904065131 | 63 | 234 | 2.0 | 9.0 | 0.00 | 0.00 | 0.00 | 100 | 959.2 |
| 20260904064928 | 63 | 234 | 2.0 | 7.0 | 0.00 | 0.00 | 0.00 | 100 | 959.2 |
| 20260904064726 | 63 | 0 | 2.0 | 8.0 | 0.00 | 0.00 | 0.00 | 100 | 959.3 |
| 20260904064625 | 63 | 227 | 2.0 | 10.0 | 0.00 | 0.00 | 0.00 | 100 | 959.3 |
| 20260904064522 | 63 | 222 | 2.0 | 10.0 | 0.00 | 0.00 | 0.00 | 100 | 959.2 |
| 20260904064319 | 63 | 238 | 2.0 | 10.0 | 0.00 | 0.00 | 0.00 | 100 | 959.3 |
| 20260904064116 | 63 | 0 | 1.0 | 6.0 | 0.00 | 0.00 | 0.00 | 100 | 959.4 |
| 20260904064015 | 63 | 0 | 1.0 | 6.0 | 0.00 | 0.00 | 0.00 | 100 | 959.4 |
| 20260904063913 | 62 | 224 | 2.0 | 10.0 | 0.00 | 0.00 | 0.00 | 100 | 959.5 |
| 20260904063709 | 62 | 221 | 2.0 | 10.0 | 0.00 | 0.00 | 0.00 | 100 | 959.4 |
| 20260904063507 | 62 | 214 | 2.0 | 8.0 | 0.00 | 0.00 | 0.00 | 100 | 959.5 |
| 20260904063407 | 62 | 218 | 2.0 | 7.0 | 0.00 | 0.00 | 0.00 | 100 | 959.6 |
| 20260904063304 | 62 | 220 | 2.0 | 7.0 | 0.00 | 0.00 | 0.00 | 100 | 959.5 |
| 20260904063101 | 62 | 223 | 2.0 | 7.0 | 0.00 | 0.00 | 0.00 | 100 | 959.3 |
| 20260904062859 | 63 | 224 | 2.0 | 7.0 | 0.00 | 0.00 | 0.00 | 100 | 959.3 |
| 20260904062758 | 63 | 227 | 2.0 | 7.0 | 0.00 | 0.00 | 0.00 | 100 | 959.4 |
| 20260904062655 | 63 | 227 | 2.0 | 7.0 | 0.00 | 0.00 | 0.00 | 100 | 959.3 |
| 20260904062451 | 63 | 217 | 2.0 | 7.0 | 0.00 | 0.00 | 0.00 | 100 | 959.2 |
| 20260904062248 | 63 | 223 | 2.0 | 12.0 | 0.00 | 0.00 | 0.00 | 100 | 959.3 |
| 20260904062148 | 63 | 231 | 2.0 | 12.0 | 0.00 | 0.00 | 0.00 | 100 | 959.2 |
| 20260904062045 | 63 | 229 | 2.0 | 12.0 | 0.00 | 0.00 | 0.00 | 100 | 959.3 |
| 20260904061843 | 63 | 211 | 2.0 | 8.0 | 0.00 | 0.00 | 0.00 | 100 | 959.2 |
| 20260904061639 | 63 | 211 | 2.0 | 8.0 | 0.00 | 0.00 | 0.00 | 100 | 959.1 |
| 20260904061539 | 63 | 212 | 2.0 | 8.0 | 0.00 | 0.00 | 0.00 | 100 | 959.1 |
| 20260904061437 | 63 | 209 | 2.0 | 11.0 | 0.00 | 0.00 | 0.00 | 100 | 959.1 |
| 20260904061233 | 63 | 215 | 2.0 | 11.0 | 0.00 | 0.00 | 0.00 | 100 | 959.1 |
| 20260904061029 | 63 | 219 | 2.0 | 9.0 | 0.00 | 0.00 | 0.00 | 100 | 959.1 |
| 20260904060929 | 63 | 214 | 2.0 | 9.0 | 0.00 | 0.00 | 0.00 | 100 | 959.0 |
| 20260904060827 | 63 | 217 | 2.0 | 9.0 | 0.00 | 0.00 | 0.00 | 100 | 959.0 |
| 20260904060624 | 63 | 214 | 2.0 | 7.0 | 0.00 | 0.00 | 0.00 | 100 | 959.1 |
| 20260904060421 | 63 | 230 | 2.0 | 9.0 | 0.00 | 0.00 | 0.00 | 100 | 959.0 |
| 20260904060320 | 62 | 233 | 2.0 | 9.0 | 0.00 | 0.00 | 0.00 | 100 | 959.2 |
| 20260904060217 | 62 | 238 | 2.0 | 9.0 | 0.00 | 0.00 | 0.00 | 100 | 959.2 |
| 20260904060015 | 63 | 224 | 2.0 | 8.0 | 0.00 | 0.00 | 0.00 | 100 | 959.1 |
| 20260904055811 | 62 | 221 | 1.0 | 8.0 | 0.00 | 0.00 | 0.00 | 100 | 959.2 |
| 20260904055710 | 62 | 0 | 1.0 | 7.0 | 0.00 | 0.00 | 0.00 | 100 | 959.2 |
| 20260904055608 | 62 | 207 | 1.0 | 7.0 | 0.00 | 0.00 | 0.00 | 100 | 959.2 |
| 20260904055404 | 62 | 219 | 2.0 | 8.0 | 0.00 | 0.00 | 0.00 | 100 | 959.1 |
| 20260904055201 | 62 | 228 | 2.0 | 8.0 | 0.00 | 0.00 | 0.00 | 100 | 959.2 |
| 20260904055101 | 62 | 220 | 2.0 | 8.0 | 0.00 | 0.00 | 0.00 | 100 | 959.3 |
| 20260904054958 | 62 | 230 | 2.0 | 7.0 | 0.00 | 0.00 | 0.00 | 100 | 959.3 |
| 20260904054755 | 62 | 239 | 2.0 | 12.0 | 0.00 | 0.00 | 0.00 | 100 | 959.3 |
| 20260904054552 | 62 | 230 | 2.0 | 12.0 | 0.00 | 0.00 | 0.00 | 100 | 959.2 |
| 20260904054451 | 62 | 229 | 2.0 | 12.0 | 0.00 | 0.00 | 0.00 | 100 | 959.1 |
| 20260904054349 | 62 | 224 | 2.0 | 9.0 | 0.00 | 0.00 | 0.00 | 100 | 959.2 |
| 20260904054146 | 62 | 0 | 2.0 | 9.0 | 0.00 | 0.00 | 0.00 | 100 | 959.4 |
| 20260904053943 | 62 | 0 | 2.0 | 8.0 | 0.00 | 0.00 | 0.00 | 100 | 959.4 |
| 20260904053842 | 62 | 0 | 2.0 | 8.0 | 0.00 | 0.00 | 0.00 | 100 | 959.4 |
| 20260904053740 | 62 | 226 | 1.0 | 8.0 | 0.00 | 0.00 | 0.00 | 100 | 959.4 |
| 20260904053537 | 62 | 0 | 1.0 | 8.0 | 0.00 | 0.00 | 0.00 | 100 | 959.4 |
| 20260904053333 | 62 | 0 | 2.0 | 9.0 | 0.00 | 0.00 | 0.00 | 100 | 959.4 |
| 20260904053233 | 62 | 225 | 2.0 | 9.0 | 0.00 | 0.00 | 0.00 | 100 | 959.3 |
| 20260904053130 | 61 | 223 | 2.0 | 9.0 | 0.00 | 0.00 | 0.00 | 100 | 959.4 |
| 20260904052927 | 61 | 206 | 1.0 | 8.0 | 0.00 | 0.00 | 0.00 | 100 | 959.3 |
| 20260904052724 | 61 | 207 | 1.0 | 9.0 | 0.00 | 0.00 | 0.00 | 100 | 959.4 |
| 20260904052622 | 61 | 209 | 2.0 | 9.0 | 0.00 | 0.00 | 0.00 | 100 | 959.3 |
| 20260904052520 | 61 | 212 | 2.0 | 9.0 | 0.00 | 0.00 | 0.00 | 100 | 959.3 |
| 20260904052317 | 61 | 207 | 2.0 | 6.0 | 0.00 | 0.00 | 0.00 | 100 | 959.4 |
| 20260904052114 | 61 | 205 | 2.0 | 7.0 | 0.00 | 0.00 | 0.00 | 100 | 959.3 |
| 20260904052013 | 61 | 213 | 2.0 | 7.0 | 0.00 | 0.00 | 0.00 | 100 | 959.2 |
| 20260904051911 | 61 | 216 | 2.0 | 6.0 | 0.00 | 0.00 | 0.00 | 100 | 959.3 |
| 20260904051708 | 61 | 230 | 2.0 | 7.0 | 0.00 | 0.00 | 0.00 | 100 | 959.4 |
| 20260904051505 | 61 | 228 | 1.0 | 7.0 | 0.00 | 0.00 | 0.00 | 100 | 959.3 |
| 20260904051404 | 61 | 215 | 1.0 | 7.0 | 0.00 | 0.00 | 0.00 | 100 | 959.3 |
| 20260904051302 | 61 | 212 | 1.0 | 7.0 | 0.00 | 0.00 | 0.00 | 100 | 959.3 |
| 20260904051059 | 61 | 222 | 2.0 | 11.0 | 0.00 | 0.00 | 0.00 | 100 | 959.1 |
| 20260904050857 | 61 | 228 | 2.0 | 11.0 | 0.00 | 0.00 | 0.00 | 100 | 959.2 |
| 20260904050756 | 61 | 219 | 1.0 | 11.0 | 0.00 | 0.00 | 0.00 | 100 | 959.2 |
| 20260904050641 | 61 | 0 | 1.0 | 7.0 | 0.00 | 0.00 | 0.00 | 100 | 959.2 |
| 20260904050437 | 61 | 0 | 1.0 | 7.0 | 0.00 | 0.00 | 0.00 | 100 | 959.3 |
| 20260904050233 | 61 | 211 | 1.0 | 7.0 | 0.00 | 0.00 | 0.00 | 100 | 959.2 |
| 20260904050133 | 61 | 219 | 1.0 | 6.0 | 0.00 | 0.00 | 0.00 | 100 | 959.2 |
| 20260904050031 | 61 | 215 | 1.0 | 6.0 | 0.00 | 0.00 | 0.00 | 100 | 959.2 |
| 20260904045827 | 61 | 216 | 2.0 | 7.0 | 0.00 | 0.00 | 0.00 | 100 | 959.2 |
| 20260904045624 | 61 | 212 | 2.0 | 8.0 | 0.00 | 0.00 | 0.00 | 100 | 959.2 |
| 20260904045524 | 61 | 211 | 2.0 | 8.0 | 0.00 | 0.00 | 0.00 | 100 | 959.3 |
| 20260904045422 | 61 | 205 | 2.0 | 8.0 | 0.00 | 0.00 | 0.00 | 100 | 959.2 |
| 20260904045219 | 61 | 207 | 2.0 | 8.0 | 0.00 | 0.00 | 0.00 | 100 | 959.2 |
| 20260904045016 | 60 | 214 | 2.0 | 9.0 | 0.00 | 0.00 | 0.00 | 100 | 959.2 |
| 20260904044915 | 60 | 213 | 2.0 | 9.0 | 0.00 | 0.00 | 0.00 | 100 | 959.2 |
| 20260904044813 | 60 | 214 | 2.0 | 9.0 | 0.00 | 0.00 | 0.00 | 100 | 959.2 |
| 20260904044610 | 60 | 214 | 1.0 | 6.0 | 0.00 | 0.00 | 0.00 | 100 | 959.1 |
| 20260904044406 | 60 | 214 | 1.0 | 6.0 | 0.00 | 0.00 | 0.00 | 100 | 959.1 |
| 20260904044306 | 60 | 218 | 1.0 | 6.0 | 0.00 | 0.00 | 0.00 | 100 | 959.1 |
| 20260904044203 | 60 | 220 | 2.0 | 7.0 | 0.00 | 0.00 | 0.00 | 100 | 959.1 |
| 20260904044000 | 60 | 213 | 2.0 | 7.0 | 0.00 | 0.00 | 0.00 | 100 | 959.1 |
| 20260904043758 | 60 | 219 | 2.0 | 5.0 | 0.00 | 0.00 | 0.00 | 100 | 959.0 |
| 20260904043657 | 60 | 228 | 1.0 | 7.0 | 0.00 | 0.00 | 0.00 | 100 | 959.0 |
| 20260904043554 | 60 | 232 | 1.0 | 7.0 | 0.00 | 0.00 | 0.00 | 100 | 959.0 |
| 20260904043351 | 60 | 216 | 1.0 | 8.0 | 0.00 | 0.00 | 0.00 | 100 | 959.0 |
| 20260904043148 | 60 | 217 | 2.0 | 9.0 | 0.00 | 0.00 | 0.00 | 100 | 959.1 |
| 20260904042945 | 61 | 219 | 2.0 | 9.0 | 0.00 | 0.00 | 0.00 | 100 | 959.0 |
| 20260904042742 | 61 | 225 | 3.0 | 14.0 | 0.00 | 0.00 | 0.00 | 100 | 959.0 |
| 20260904042538 | 61 | 247 | 4.0 | 14.0 | 0.00 | 0.00 | 0.00 | 100 | 959.1 |
| 20260904042437 | 61 | 256 | 4.0 | 14.0 | 0.00 | 0.00 | 0.00 | 100 | 959.0 |
| 20260904042335 | 61 | 258 | 5.0 | 10.0 | 0.00 | 0.00 | 0.00 | 100 | 959.0 |
| 20260904042131 | 61 | 255 | 5.0 | 14.0 | 0.00 | 0.00 | 0.00 | 100 | 959.2 |
| 20260904041928 | 61 | 255 | 6.0 | 14.0 | 0.00 | 0.00 | 0.00 | 100 | 959.2 |
| 20260904041828 | 61 | 251 | 6.0 | 16.0 | 0.00 | 0.00 | 0.00 | 100 | 959.2 |
| 20260904041725 | 61 | 253 | 5.0 | 16.0 | 0.00 | 0.00 | 0.00 | 100 | 959.2 |
| 20260904041522 | 61 | 251 | 4.0 | 16.0 | 0.00 | 0.00 | 0.00 | 100 | 959.3 |
| 20260904041318 | 61 | 254 | 4.0 | 14.0 | 0.00 | 0.00 | 0.00 | 100 | 959.3 |
| 20260904041116 | 61 | 259 | 6.0 | 16.0 | 0.00 | 0.00 | 0.00 | 100 | 959.3 |
| 20260904040913 | 61 | 258 | 7.0 | 16.0 | 0.00 | 0.00 | 0.00 | 100 | 959.2 |
| 20260904040709 | 61 | 253 | 7.0 | 14.0 | 0.00 | 0.00 | 0.00 | 100 | 959.4 |
| 20260904040609 | 61 | 254 | 6.0 | 12.0 | 0.00 | 0.00 | 0.00 | 100 | 959.3 |
| 20260904040507 | 61 | 253 | 5.0 | 12.0 | 0.00 | 0.00 | 0.00 | 100 | 959.3 |
| 20260904040304 | 61 | 255 | 4.0 | 11.0 | 0.00 | 0.00 | 0.00 | 100 | 959.2 |
| 20260904040101 | 61 | 253 | 3.0 | 10.0 | 0.00 | 0.00 | 0.00 | 100 | 959.2 |
| 20260904040000 | 61 | 252 | 4.0 | 11.0 | 0.00 | 0.00 | 0.00 | 100 | 959.2 |
| 20260904035857 | 61 | 250 | 4.0 | 11.0 | 0.00 | 0.00 | 0.00 | 100 | 959.1 |
| 20260904035654 | 61 | 251 | 5.0 | 11.0 | 0.00 | 0.00 | 0.00 | 100 | 959.0 |
| 20260904035451 | 61 | 251 | 4.0 | 10.0 | 0.00 | 0.00 | 0.00 | 100 | 959.0 |
| 20260904035350 | 61 | 252 | 4.0 | 10.0 | 0.00 | 0.00 | 0.00 | 100 | 959.1 |
| 20260904035248 | 61 | 256 | 4.0 | 12.0 | 0.00 | 0.00 | 0.00 | 100 | 959.1 |
| 20260904035044 | 62 | 252 | 4.0 | 12.0 | 0.00 | 0.00 | 0.00 | 100 | 959.2 |
| 20260904034843 | 62 | 253 | 5.0 | 11.0 | 0.00 | 0.00 | 0.00 | 100 | 959.2 |
| 20260904034742 | 61 | 258 | 5.0 | 11.0 | 0.00 | 0.00 | 0.00 | 100 | 959.2 |
| 20260904034639 | 62 | 258 | 4.0 | 13.0 | 0.00 | 0.00 | 0.00 | 100 | 959.2 |
| 20260904034436 | 62 | 263 | 5.0 | 16.0 | 0.00 | 0.00 | 0.00 | 100 | 959.2 |
| 20260904034233 | 62 | 265 | 7.0 | 16.0 | 0.00 | 0.00 | 0.00 | 100 | 959.2 |
| 20260904034132 | 62 | 263 | 7.0 | 16.0 | 0.00 | 0.00 | 0.00 | 100 | 959.2 |
| 20260904034030 | 62 | 258 | 7.0 | 16.0 | 0.00 | 0.00 | 0.00 | 100 | 959.2 |
| 20260904033826 | 62 | 252 | 5.0 | 16.0 | 0.00 | 0.00 | 0.00 | 100 | 959.2 |
| 20260904033623 | 62 | 251 | 6.0 | 16.0 | 0.00 | 0.00 | 0.00 | 100 | 959.1 |
| 20260904033522 | 62 | 256 | 6.0 | 16.0 | 0.00 | 0.00 | 0.00 | 100 | 959.1 |
| 20260904033421 | 62 | 256 | 6.0 | 14.0 | 0.00 | 0.00 | 0.00 | 100 | 959.2 |
| 20260904033217 | 62 | 254 | 7.0 | 21.0 | 0.00 | 0.00 | 0.00 | 100 | 959.2 |
| 20260904033015 | 62 | 248 | 5.0 | 21.0 | 0.00 | 0.00 | 0.00 | 100 | 959.0 |
| 20260904032914 | 62 | 241 | 5.0 | 21.0 | 0.00 | 0.00 | 0.00 | 100 | 959.1 |
| 20260904032811 | 62 | 243 | 4.0 | 13.0 | 0.00 | 0.00 | 0.00 | 100 | 959.0 |
| 20260904032608 | 61 | 249 | 4.0 | 13.0 | 0.00 | 0.00 | 0.00 | 100 | 959.0 |
| 20260904032404 | 62 | 257 | 4.0 | 13.0 | 0.00 | 0.00 | 0.00 | 100 | 959.0 |
| 20260904032305 | 62 | 256 | 4.0 | 12.0 | 0.00 | 0.00 | 0.00 | 100 | 959.0 |
| 20260904032201 | 62 | 256 | 4.0 | 12.0 | 0.00 | 0.00 | 0.00 | 100 | 959.1 |
| 20260904031958 | 62 | 259 | 5.0 | 16.0 | 0.00 | 0.00 | 0.00 | 100 | 959.0 |
| 20260904031755 | 62 | 262 | 7.0 | 16.0 | 0.00 | 0.00 | 0.00 | 100 | 959.1 |
| 20260904031551 | 62 | 260 | 6.0 | 15.0 | 0.00 | 0.00 | 0.00 | 100 | 959.1 |
| 20260904031348 | 61 | 259 | 5.0 | 11.0 | 0.00 | 0.00 | 0.00 | 100 | 959.1 |
| 20260904031144 | 61 | 260 | 5.0 | 11.0 | 0.00 | 0.00 | 0.00 | 100 | 959.2 |
| 20260904031043 | 61 | 257 | 2.0 | 11.0 | 0.00 | 0.00 | 0.00 | 100 | 959.2 |
| 20260904030941 | 61 | 257 | 2.0 | 9.0 | 0.00 | 0.00 | 0.00 | 100 | 959.2 |
| 20260904030738 | 61 | 217 | 1.0 | 6.0 | 0.00 | 0.00 | 0.00 | 100 | 959.2 |
| 20260904030535 | 61 | 248 | 3.0 | 8.0 | 0.00 | 0.00 | 0.00 | 100 | 959.1 |
| 20260904030434 | 61 | 253 | 3.0 | 8.0 | 0.00 | 0.00 | 0.00 | 100 | 959.1 |
| 20260904030331 | 61 | 250 | 3.0 | 8.0 | 0.00 | 0.00 | 0.00 | 100 | 959.1 |
| 20260904030128 | 61 | 221 | 2.0 | 7.0 | 0.00 | 0.00 | 0.00 | 100 | 959.1 |
| 20260904025925 | 61 | 257 | 5.0 | 15.0 | 0.00 | 0.00 | 0.00 | 100 | 959.1 |
| 20260904025721 | 62 | 267 | 6.0 | 15.0 | 0.00 | 0.00 | 0.00 | 100 | 959.3 |
| 20260904025518 | 62 | 264 | 5.0 | 10.0 | 0.00 | 0.00 | 0.00 | 100 | 959.2 |
| 20260904025316 | 62 | 264 | 4.0 | 10.0 | 0.00 | 0.00 | 0.00 | 100 | 959.2 |
| 20260904025215 | 61 | 269 | 4.0 | 10.0 | 0.00 | 0.00 | 0.00 | 100 | 959.2 |
| 20260904025112 | 61 | 265 | 4.0 | 10.0 | 0.00 | 0.00 | 0.00 | 100 | 959.2 |
| 20260904024908 | 61 | 263 | 4.0 | 11.0 | 0.00 | 0.00 | 0.00 | 100 | 959.1 |
| 20260904024705 | 61 | 260 | 3.0 | 10.0 | 0.00 | 0.00 | 0.00 | 100 | 959.2 |
| 20260904024604 | 60 | 250 | 2.0 | 9.0 | 0.00 | 0.00 | 0.00 | 100 | 959.1 |
| 20260904024502 | 61 | 243 | 1.0 | 7.0 | 0.00 | 0.00 | 0.00 | 100 | 959.2 |
| 20260904024259 | 61 | 247 | 2.0 | 8.0 | 0.00 | 0.00 | 0.00 | 100 | 959.3 |
| 20260904024055 | 61 | 254 | 4.0 | 11.0 | 0.00 | 0.00 | 0.00 | 100 | 959.2 |
| 20260904023954 | 61 | 252 | 4.0 | 11.0 | 0.00 | 0.00 | 0.00 | 100 | 959.3 |
| 20260904023852 | 60 | 252 | 3.0 | 11.0 | 0.00 | 0.00 | 0.00 | 100 | 959.2 |
| 20260904023649 | 60 | 244 | 3.0 | 9.0 | 0.00 | 0.00 | 0.00 | 100 | 959.2 |
| 20260904023445 | 60 | 239 | 3.0 | 9.0 | 0.00 | 0.00 | 0.00 | 100 | 959.1 |
| 20260904023345 | 60 | 233 | 2.0 | 5.0 | 0.00 | 0.00 | 0.00 | 100 | 959.2 |
| 20260904023243 | 60 | 237 | 2.0 | 13.0 | 0.00 | 0.00 | 0.00 | 100 | 959.0 |
| 20260904023040 | 60 | 234 | 2.0 | 13.0 | 0.00 | 0.00 | 0.00 | 100 | 959.2 |
| 20260904022836 | 60 | 249 | 2.0 | 7.0 | 0.00 | 0.00 | 0.00 | 100 | 959.1 |
| 20260904022722 | 60 | 256 | 1.0 | 7.0 | 0.00 | 0.00 | 0.00 | 100 | 959.0 |
| 20260904022620 | 59 | 0 | 1.0 | 4.0 | 0.00 | 0.00 | 0.00 | 100 | 959.0 |
| 20260904022417 | 59 | 0 | 1.0 | 6.0 | 0.00 | 0.00 | 0.00 | 100 | 959.1 |
| 20260904022214 | 59 | 0 | 1.0 | 6.0 | 0.00 | 0.00 | 0.00 | 100 | 959.1 |
| 20260904022010 | 59 | 0 | 1.0 | 4.0 | 0.00 | 0.00 | 0.00 | 100 | 959.0 |
| 20260904021807 | 59 | 0 | 0.0 | 4.0 | 0.00 | 0.00 | 0.00 | 100 | 959.1 |
| 20260904021604 | 59 | 0 | 1.0 | 4.0 | 0.00 | 0.00 | 0.00 | 100 | 958.9 |
| 20260904021503 | 60 | 0 | 1.0 | 4.0 | 0.00 | 0.00 | 0.00 | 100 | 958.9 |
| 20260904021400 | 60 | 0 | 1.0 | 4.0 | 0.00 | 0.00 | 0.00 | 100 | 959.0 |
| 20260904021157 | 60 | 236 | 2.0 | 10.0 | 0.00 | 0.00 | 0.00 | 100 | 959.0 |
| 20260904020954 | 60 | 237 | 2.0 | 10.0 | 0.00 | 0.00 | 0.00 | 100 | 958.9 |
| 20260904020853 | 60 | 235 | 2.0 | 10.0 | 0.00 | 0.00 | 0.00 | 100 | 958.9 |
| 20260904020751 | 60 | 231 | 2.0 | 8.0 | 0.00 | 0.00 | 0.00 | 100 | 958.8 |
| 20260904020547 | 60 | 225 | 2.0 | 8.0 | 0.00 | 0.00 | 0.00 | 100 | 959.0 |
| 20260904020344 | 60 | 223 | 2.0 | 8.0 | 0.00 | 0.00 | 0.00 | 100 | 959.0 |
| 20260904020243 | 60 | 227 | 2.0 | 8.0 | 0.00 | 0.00 | 0.00 | 100 | 959.0 |
| 20260904020141 | 60 | 230 | 2.0 | 9.0 | 0.00 | 0.00 | 0.00 | 100 | 959.0 |
| 20260904015938 | 61 | 233 | 2.0 | 9.0 | 0.00 | 0.00 | 0.00 | 100 | 959.0 |
| 20260904015735 | 61 | 227 | 2.0 | 9.0 | 0.00 | 0.00 | 0.00 | 100 | 959.0 |
| 20260904015634 | 61 | 234 | 2.0 | 9.0 | 0.00 | 0.00 | 0.00 | 100 | 959.0 |
| 20260904015531 | 61 | 233 | 2.0 | 9.0 | 0.00 | 0.00 | 0.00 | 100 | 959.0 |
| 20260904015328 | 61 | 230 | 2.0 | 10.0 | 0.00 | 0.00 | 0.00 | 100 | 959.0 |
| 20260904015125 | 61 | 220 | 2.0 | 10.0 | 0.00 | 0.00 | 0.00 | 100 | 959.0 |
| 20260904015024 | 61 | 219 | 2.0 | 10.0 | 0.00 | 0.00 | 0.00 | 100 | 959.1 |
| 20260904014922 | 61 | 215 | 2.0 | 10.0 | 0.00 | 0.00 | 0.00 | 100 | 959.1 |
| 20260904014719 | 61 | 221 | 2.0 | 10.0 | 0.00 | 0.00 | 0.00 | 100 | 959.1 |
| 20260904014516 | 62 | 237 | 3.0 | 12.0 | 0.00 | 0.00 | 0.00 | 100 | 959.0 |
| 20260904014414 | 62 | 244 | 4.0 | 12.0 | 0.00 | 0.00 | 0.00 | 100 | 959.1 |
| 20260904014313 | 62 | 246 | 5.0 | 15.0 | 0.00 | 0.00 | 0.00 | 100 | 959.1 |
| 20260904014109 | 62 | 247 | 5.0 | 15.0 | 0.00 | 0.00 | 0.00 | 100 | 959.2 |
| 20260904013906 | 61 | 241 | 3.0 | 12.0 | 0.00 | 0.00 | 0.00 | 100 | 959.2 |
| 20260904013806 | 61 | 241 | 3.0 | 10.0 | 0.00 | 0.00 | 0.00 | 100 | 959.1 |
| 20260904013703 | 61 | 234 | 3.0 | 10.0 | 0.00 | 0.00 | 0.00 | 100 | 959.1 |
| 20260904013459 | 60 | 259 | 3.0 | 14.0 | 0.00 | 0.00 | 0.00 | 100 | 959.1 |
| 20260904013257 | 59 | 283 | 4.0 | 11.0 | 0.00 | 0.00 | 0.00 | 100 | 959.1 |
| 20260904013156 | 59 | 301 | 3.0 | 11.0 | 0.00 | 0.00 | 0.00 | 100 | 959.1 |
| 20260904013054 | 58 | 304 | 3.0 | 11.0 | 0.00 | 0.00 | 0.00 | 100 | 959.1 |
| 20260904012851 | 58 | 326 | 2.0 | 6.0 | 0.00 | 0.00 | 0.00 | 100 | 959.1 |
| 20260904012647 | 59 | 299 | 4.0 | 8.0 | 0.00 | 0.00 | 0.00 | 100 | 959.1 |
| 20260904012546 | 61 | 291 | 5.0 | 9.0 | 0.00 | 0.00 | 0.00 | 100 | 959.1 |
| 20260904012444 | 62 | 274 | 5.0 | 9.0 | 0.00 | 0.00 | 0.00 | 100 | 959.1 |
| 20260904012241 | 62 | 267 | 6.0 | 11.0 | 0.00 | 0.00 | 0.00 | 100 | 959.0 |
| 20260904012039 | 62 | 260 | 5.0 | 12.0 | 0.00 | 0.00 | 0.00 | 100 | 959.1 |
| 20260904011938 | 62 | 255 | 5.0 | 12.0 | 0.00 | 0.00 | 0.00 | 100 | 959.1 |
| 20260904011836 | 62 | 253 | 5.0 | 12.0 | 0.00 | 0.00 | 0.00 | 100 | 958.9 |
| 20260904011632 | 62 | 236 | 3.0 | 13.0 | 0.00 | 0.00 | 0.00 | 100 | 959.0 |
| 20260904011429 | 62 | 233 | 2.0 | 13.0 | 0.00 | 0.00 | 0.00 | 100 | 959.0 |
| 20260904011328 | 62 | 239 | 3.0 | 16.0 | 0.00 | 0.00 | 0.00 | 100 | 959.0 |
| 20260904011225 | 62 | 240 | 3.0 | 16.0 | 0.00 | 0.00 | 0.00 | 100 | 959.0 |
| 20260904011022 | 62 | 226 | 2.0 | 16.0 | 0.00 | 0.00 | 0.00 | 100 | 958.9 |
| 20260904010819 | 62 | 201 | 2.0 | 8.0 | 0.00 | 0.00 | 0.00 | 100 | 958.9 |
| 20260904010718 | 62 | 213 | 2.0 | 9.0 | 0.00 | 0.00 | 0.00 | 100 | 958.9 |
| 20260904010616 | 62 | 216 | 3.0 | 9.0 | 0.00 | 0.00 | 0.00 | 100 | 959.0 |
| 20260904010413 | 62 | 222 | 3.0 | 10.0 | 0.00 | 0.00 | 0.00 | 100 | 959.1 |
| 20260904010211 | 61 | 222 | 2.0 | 10.0 | 0.00 | 0.00 | 0.00 | 100 | 959.1 |
| 20260904010110 | 61 | 231 | 1.0 | 9.0 | 0.00 | 0.00 | 0.00 | 100 | 959.2 |
| 20260904010007 | 61 | 0 | 1.0 | 6.0 | 0.00 | 0.00 | 0.00 | 100 | 959.2 |
| 20260904005804 | 61 | 257 | 1.0 | 6.0 | 0.00 | 0.00 | 0.00 | 100 | 959.1 |
| 20260904005601 | 61 | 0 | 1.0 | 5.0 | 0.00 | 0.00 | 0.00 | 100 | 959.2 |
| 20260904005500 | 61 | 235 | 1.0 | 5.0 | 0.00 | 0.00 | 0.00 | 100 | 959.1 |
| 20260904005357 | 61 | 0 | 1.0 | 5.0 | 0.00 | 0.00 | 0.00 | 100 | 959.2 |
| 20260904005154 | 62 | 237 | 1.0 | 5.0 | 0.00 | 0.00 | 0.00 | 100 | 959.2 |
| 20260904004951 | 62 | 240 | 2.0 | 12.0 | 0.00 | 0.00 | 0.00 | 100 | 959.3 |
| 20260904004748 | 62 | 235 | 3.0 | 12.0 | 0.00 | 0.00 | 0.00 | 100 | 959.1 |
| 20260904004545 | 62 | 225 | 2.0 | 9.0 | 0.00 | 0.00 | 0.00 | 100 | 959.1 |
| 20260904004342 | 62 | 239 | 2.0 | 9.0 | 0.00 | 0.00 | 0.00 | 100 | 959.2 |
| 20260904004242 | 62 | 239 | 2.0 | 9.0 | 0.00 | 0.00 | 0.00 | 100 | 959.3 |
| 20260904004139 | 62 | 238 | 2.0 | 9.0 | 0.00 | 0.00 | 0.00 | 100 | 959.3 |
| 20260904003936 | 62 | 243 | 2.0 | 9.0 | 0.00 | 0.00 | 0.00 | 100 | 959.3 |
| 20260904003733 | 62 | 252 | 2.0 | 7.0 | 0.00 | 0.00 | 0.00 | 100 | 959.3 |
| 20260904003632 | 62 | 251 | 2.0 | 5.0 | 0.00 | 0.00 | 0.00 | 100 | 959.3 |
| 20260904003529 | 62 | 250 | 2.0 | 5.0 | 0.00 | 0.00 | 0.00 | 100 | 959.4 |
| 20260904003326 | 62 | 247 | 2.0 | 8.0 | 0.00 | 0.00 | 0.00 | 100 | 959.4 |
| 20260904003124 | 62 | 245 | 2.0 | 8.0 | 0.00 | 0.00 | 0.00 | 100 | 959.4 |
| 20260904003023 | 62 | 241 | 2.0 | 8.0 | 0.00 | 0.00 | 0.00 | 100 | 959.4 |
| 20260904002921 | 62 | 225 | 2.0 | 7.0 | 0.00 | 0.00 | 0.00 | 100 | 959.4 |
| 20260904002718 | 62 | 221 | 1.0 | 7.0 | 0.00 | 0.00 | 0.00 | 100 | 959.4 |
| 20260904002515 | 62 | 230 | 1.0 | 7.0 | 0.00 | 0.00 | 0.00 | 100 | 959.4 |
| 20260904002414 | 62 | 230 | 1.0 | 7.0 | 0.00 | 0.00 | 0.00 | 100 | 959.4 |
| 20260904002312 | 62 | 0 | 1.0 | 5.0 | 0.00 | 0.00 | 0.00 | 100 | 959.3 |
| 20260904002108 | 62 | 0 | 1.0 | 5.0 | 0.00 | 0.00 | 0.00 | 100 | 959.2 |
| 20260904001905 | 62 | 219 | 1.0 | 8.0 | 0.00 | 0.00 | 0.00 | 100 | 959.3 |
| 20260904001805 | 62 | 222 | 1.0 | 8.0 | 0.00 | 0.00 | 0.00 | 100 | 959.3 |
| 20260904001702 | 62 | 221 | 1.0 | 8.0 | 0.00 | 0.00 | 0.00 | 100 | 959.4 |
| 20260904001459 | 63 | 0 | 1.0 | 5.0 | 0.00 | 0.00 | 0.00 | 100 | 959.4 |
| 20260904001256 | 63 | 220 | 1.0 | 5.0 | 0.00 | 0.00 | 0.00 | 100 | 959.4 |
| 20260904001155 | 63 | 227 | 1.0 | 5.0 | 0.00 | 0.00 | 0.00 | 100 | 959.4 |
| 20260904001053 | 63 | 236 | 1.0 | 5.0 | 0.00 | 0.00 | 0.00 | 100 | 959.4 |
| 20260904000851 | 63 | 243 | 1.0 | 5.0 | 0.00 | 0.00 | 0.00 | 100 | 959.5 |
| 20260904000647 | 63 | 237 | 1.0 | 5.0 | 0.00 | 0.00 | 0.00 | 100 | 959.5 |
| 20260904000547 | 63 | 235 | 2.0 | 6.0 | 0.00 | 0.00 | 0.00 | 100 | 959.5 |
| 20260904000444 | 63 | 238 | 2.0 | 6.0 | 0.00 | 0.00 | 0.00 | 100 | 959.5 |
| 20260904000241 | 63 | 241 | 2.0 | 11.0 | 0.00 | 0.00 | 0.00 | 100 | 959.5 |
| 20260904000038 | 64 | 248 | 3.0 | 12.0 | 0.00 | 0.00 | 0.00 | 100 | 959.5 |
| 20260903235937 | 64 | 245 | 3.0 | 12.0 | 0.00 | 0.00 | 0.00 | 100 | 959.5 |
| 20260903235741 | 64 | 249 | 3.0 | 9.0 | 0.00 | 0.00 | 0.00 | 100 | 959.4 |
| 20260903235537 | 64 | 248 | 4.0 | 9.0 | 0.00 | 0.00 | 0.00 | 100 | 959.5 |
| 20260903235438 | 64 | 248 | 4.0 | 10.0 | 0.00 | 0.00 | 0.00 | 100 | 959.4 |
| 20260903235334 | 64 | 247 | 4.0 | 10.0 | 0.00 | 0.00 | 0.00 | 100 | 959.5 |
| 20260903235131 | 64 | 241 | 2.0 | 10.0 | 0.00 | 0.00 | 0.00 | 100 | 959.4 |
| 20260903234927 | 64 | 218 | 2.0 | 9.0 | 0.00 | 0.00 | 0.00 | 100 | 959.6 |
| 20260903234827 | 64 | 214 | 2.0 | 9.0 | 0.00 | 0.00 | 0.00 | 100 | 959.5 |
| 20260903234724 | 64 | 210 | 2.0 | 9.0 | 0.00 | 0.00 | 0.00 | 100 | 959.5 |
| 20260903234521 | 64 | 235 | 3.0 | 16.0 | 0.00 | 0.00 | 0.00 | 100 | 959.5 |
| 20260903234317 | 64 | 237 | 3.0 | 16.0 | 0.00 | 0.00 | 0.00 | 100 | 959.5 |
| 20260903234203 | 64 | 228 | 3.0 | 11.0 | 0.00 | 0.00 | 0.00 | 100 | 959.6 |
| 20260903234100 | 64 | 234 | 3.0 | 11.0 | 0.00 | 0.00 | 0.00 | 100 | 959.6 |
| 20260903233857 | 64 | 237 | 4.0 | 11.0 | 0.00 | 0.00 | 0.00 | 100 | 959.6 |
| 20260903233654 | 64 | 238 | 4.0 | 14.0 | 0.00 | 0.00 | 0.00 | 100 | 959.6 |
| 20260903233553 | 64 | 233 | 3.0 | 14.0 | 0.00 | 0.00 | 0.00 | 100 | 959.7 |
| 20260903233451 | 64 | 229 | 3.0 | 14.0 | 0.00 | 0.00 | 0.00 | 100 | 959.7 |
| 20260903233247 | 64 | 253 | 5.0 | 15.0 | 0.00 | 0.00 | 0.00 | 100 | 959.7 |
| 20260903233045 | 64 | 256 | 6.0 | 15.0 | 0.00 | 0.00 | 0.00 | 100 | 959.8 |
| 20260903232944 | 65 | 256 | 5.0 | 15.0 | 0.00 | 0.00 | 0.00 | 100 | 959.7 |
| 20260903232842 | 64 | 255 | 5.0 | 13.0 | 0.00 | 0.00 | 0.00 | 100 | 959.7 |
| 20260903232639 | 65 | 268 | 7.0 | 18.0 | 0.00 | 0.00 | 0.00 | 100 | 959.9 |
| 20260903232436 | 65 | 264 | 6.0 | 18.0 | 0.00 | 0.00 | 0.00 | 100 | 959.7 |
| 20260903232335 | 65 | 259 | 5.0 | 13.0 | 0.00 | 0.00 | 0.00 | 100 | 959.9 |
| 20260903232233 | 65 | 262 | 6.0 | 13.0 | 0.00 | 0.00 | 0.00 | 100 | 959.9 |
| 20260903232029 | 65 | 282 | 8.0 | 18.0 | 0.00 | 0.00 | 0.00 | 100 | 959.9 |
| 20260903231826 | 65 | 282 | 8.0 | 18.0 | 0.00 | 0.00 | 0.00 | 100 | 959.9 |
| 20260903231725 | 65 | 278 | 7.0 | 18.0 | 0.00 | 0.00 | 0.00 | 100 | 959.9 |
| 20260903231623 | 65 | 281 | 7.0 | 14.0 | 0.00 | 0.00 | 0.00 | 100 | 959.9 |
| 20260903231419 | 65 | 284 | 10.0 | 18.0 | 0.00 | 0.00 | 0.00 | 100 | 960.0 |
| 20260903231217 | 65 | 293 | 13.0 | 27.0 | 0.00 | 0.00 | 0.00 | 100 | 959.9 |
| 20260903231116 | 65 | 292 | 14.0 | 27.0 | 0.00 | 0.00 | 0.00 | 100 | 959.9 |
| 20260903231014 | 65 | 290 | 14.0 | 27.0 | 0.00 | 0.00 | 0.00 | 100 | 960.0 |
| 20260903230811 | 65 | 285 | 9.0 | 18.0 | 0.00 | 0.00 | 0.00 | 100 | 960.0 |
| 20260903230607 | 64 | 286 | 7.0 | 12.0 | 0.00 | 0.00 | 0.00 | 100 | 960.1 |
| 20260903230507 | 65 | 294 | 7.0 | 13.0 | 0.00 | 0.00 | 0.00 | 100 | 960.1 |
| 20260903230404 | 64 | 291 | 7.0 | 13.0 | 0.00 | 0.00 | 0.00 | 100 | 959.9 |
| 20260903230201 | 65 | 287 | 10.0 | 23.0 | 0.00 | 0.00 | 0.00 | 100 | 959.9 |
| 20260903225958 | 66 | 286 | 13.0 | 23.0 | 0.00 | 0.00 | 0.00 | 100 | 959.6 |
| 20260903225858 | 66 | 287 | 14.0 | 18.0 | 0.00 | 0.00 | 0.00 | 100 | 959.6 |
| 20260903225756 | 66 | 286 | 12.0 | 18.0 | 0.00 | 0.00 | 0.00 | 100 | 959.8 |
| 20260903225553 | 66 | 284 | 12.0 | 23.0 | 0.00 | 0.00 | 0.00 | 100 | 959.8 |
| 20260903225350 | 66 | 283 | 10.0 | 23.0 | 0.00 | 0.00 | 0.00 | 100 | 959.8 |
| 20260903225249 | 66 | 282 | 11.0 | 20.0 | 0.00 | 0.00 | 0.00 | 100 | 959.8 |
| 20260903225146 | 66 | 274 | 10.0 | 20.0 | 0.00 | 0.00 | 0.00 | 100 | 959.7 |
| 20260903224943 | 66 | 270 | 10.0 | 20.0 | 0.00 | 0.00 | 0.00 | 100 | 959.9 |
| 20260903224741 | 66 | 282 | 11.0 | 19.0 | 0.00 | 0.00 | 0.00 | 100 | 959.8 |
| 20260903224640 | 66 | 275 | 10.0 | 21.0 | 0.00 | 0.00 | 0.00 | 100 | 959.9 |
| 20260903224537 | 65 | 271 | 9.0 | 21.0 | 0.00 | 0.00 | 0.00 | 100 | 959.9 |
| 20260903224334 | 65 | 264 | 7.0 | 21.0 | 0.00 | 0.00 | 0.00 | 100 | 960.0 |
| 20260903224131 | 64 | 279 | 7.0 | 16.0 | 0.00 | 0.00 | 0.00 | 100 | 960.0 |
| 20260903224030 | 64 | 282 | 9.0 | 16.0 | 0.00 | 0.00 | 0.00 | 100 | 959.9 |
| 20260903223928 | 64 | 284 | 9.0 | 18.0 | 0.00 | 0.00 | 0.00 | 100 | 960.0 |
| 20260903223725 | 63 | 289 | 9.0 | 18.0 | 0.00 | 0.00 | 0.00 | 100 | 959.9 |
| 20260903223522 | 61 | 312 | 4.0 | 11.0 | 0.00 | 0.00 | 0.00 | 100 | 959.9 |
| 20260903223421 | 60 | 309 | 4.0 | 12.0 | 0.00 | 0.00 | 0.00 | 100 | 960.1 |
| 20260903223319 | 60 | 302 | 4.0 | 15.0 | 0.00 | 0.00 | 0.00 | 100 | 959.9 |
| 20260903223115 | 63 | 282 | 5.0 | 15.0 | 0.00 | 0.00 | 0.00 | 100 | 959.9 |
| 20260903222912 | 64 | 276 | 6.0 | 12.0 | 0.00 | 0.00 | 0.00 | 100 | 960.0 |
| 20260903222811 | 63 | 270 | 6.0 | 12.0 | 0.00 | 0.00 | 0.00 | 100 | 959.9 |
| 20260903222709 | 63 | 265 | 5.0 | 12.0 | 0.00 | 0.00 | 0.00 | 100 | 960.0 |
| 20260903222506 | 61 | 292 | 4.0 | 11.0 | 0.00 | 0.00 | 0.00 | 100 | 960.1 |
| 20260903222305 | 61 | 286 | 6.0 | 14.0 | 0.00 | 0.00 | 0.00 | 100 | 960.0 |
| 20260903222202 | 61 | 288 | 6.0 | 14.0 | 0.00 | 0.00 | 0.00 | 100 | 960.1 |
| 20260903222100 | 61 | 299 | 6.0 | 14.0 | 0.00 | 0.00 | 0.00 | 100 | 960.0 |
| 20260903221857 | 59 | 319 | 4.0 | 9.0 | 0.00 | 0.00 | 0.00 | 100 | 960.1 |
| 20260903221653 | 60 | 292 | 5.0 | 9.0 | 0.00 | 0.00 | 0.00 | 100 | 960.1 |
| 20260903221552 | 61 | 285 | 5.0 | 10.0 | 0.00 | 0.00 | 0.00 | 100 | 960.1 |
| 20260903221450 | 59 | 283 | 5.0 | 10.0 | 0.00 | 0.00 | 0.00 | 100 | 960.1 |
| 20260903221247 | 59 | 289 | 4.0 | 10.0 | 0.00 | 0.00 | 0.00 | 100 | 960.1 |
| 20260903221044 | 58 | 0 | 2.0 | 5.0 | 0.00 | 0.00 | 0.00 | 100 | 960.2 |
| 20260903220943 | 56 | 0 | 1.0 | 5.0 | 0.00 | 0.00 | 0.00 | 100 | 960.1 |
| 20260903220840 | 56 | 0 | 1.0 | 3.0 | 0.00 | 0.00 | 0.00 | 100 | 960.2 |
| 20260903220638 | 56 | 351 | 2.0 | 4.0 | 0.00 | 0.00 | 0.00 | 100 | 960.2 |
| 20260903220435 | 57 | 350 | 2.0 | 4.0 | 0.00 | 0.00 | 0.00 | 100 | 960.1 |
| 20260903220334 | 57 | 343 | 2.0 | 3.0 | 0.00 | 0.00 | 0.00 | 100 | 960.1 |
| 20260903220231 | 57 | 332 | 2.0 | 4.0 | 0.00 | 0.00 | 0.00 | 100 | 960.2 |
| 20260903220029 | 56 | 296 | 2.0 | 6.0 | 0.00 | 0.00 | 0.00 | 100 | 960.0 |
| 20260903215826 | 57 | 279 | 2.0 | 6.0 | 0.00 | 0.00 | 0.00 | 100 | 960.1 |
| 20260903215725 | 57 | 290 | 2.0 | 6.0 | 0.00 | 0.00 | 0.00 | 100 | 960.0 |
| 20260903215623 | 57 | 0 | 2.0 | 4.0 | 0.00 | 0.00 | 0.00 | 100 | 960.0 |
| 20260903215420 | 57 | 21 | 2.0 | 4.0 | 0.00 | 0.00 | 0.00 | 100 | 960.0 |
| 20260903215217 | 57 | 0 | 1.0 | 4.0 | 0.00 | 0.00 | 0.00 | 100 | 960.1 |
| 20260903215116 | 58 | 0 | 1.0 | 3.0 | 0.00 | 0.00 | 0.00 | 100 | 960.0 |
| 20260903215014 | 58 | 215 | 1.0 | 3.0 | 0.00 | 0.00 | 0.00 | 100 | 960.0 |
| 20260903214811 | 58 | 0 | 1.0 | 3.0 | 0.00 | 0.00 | 0.00 | 100 | 960.0 |
| 20260903214608 | 58 | 0 | 1.0 | 2.0 | 0.00 | 0.00 | 0.00 | 100 | 960.1 |
| 20260903214507 | 58 | 0 | 0.0 | 3.0 | 0.00 | 0.00 | 0.00 | 100 | 960.1 |
| 20260903214404 | 58 | 0 | 0.0 | 3.0 | 0.00 | 0.00 | 0.00 | 100 | 960.1 |
| 20260903214201 | 58 | 0 | 0.0 | 2.0 | 0.00 | 0.00 | 0.00 | 100 | 960.1 |
| 20260903213957 | 58 | 0 | 0.0 | 3.0 | 0.00 | 0.00 | 0.00 | 100 | 960.2 |
| 20260903213857 | 58 | 0 | 1.0 | 4.0 | 0.00 | 0.00 | 0.00 | 100 | 960.1 |
| 20260903213754 | 58 | 0 | 1.0 | 4.0 | 0.00 | 0.00 | 0.00 | 100 | 960.1 |
| 20260903213551 | 58 | 0 | 1.0 | 4.0 | 0.00 | 0.00 | 0.00 | 100 | 960.1 |
| 20260903213348 | 58 | 0 | 1.0 | 4.0 | 0.00 | 0.00 | 0.00 | 100 | 960.1 |
| 20260903213247 | 58 | 0 | 1.0 | 4.0 | 0.00 | 0.00 | 0.00 | 100 | 960.0 |
| 20260903213145 | 58 | 0 | 1.0 | 4.0 | 0.00 | 0.00 | 0.00 | 100 | 960.0 |
| 20260903212941 | 58 | 0 | 1.0 | 4.0 | 0.00 | 0.00 | 0.00 | 100 | 960.0 |
| 20260903212738 | 59 | 0 | 1.0 | 3.0 | 0.00 | 0.00 | 0.00 | 100 | 960.1 |
| 20260903212638 | 59 | 0 | 1.0 | 3.0 | 0.00 | 0.00 | 0.00 | 100 | 960.1 |
| 20260903212536 | 59 | 0 | 1.0 | 3.0 | 0.00 | 0.00 | 0.00 | 100 | 960.0 |
| 20260903212333 | 59 | 0 | 1.0 | 3.0 | 0.00 | 0.00 | 0.00 | 100 | 960.2 |
| 20260903212130 | 59 | 0 | 1.0 | 3.0 | 0.00 | 0.00 | 0.00 | 100 | 960.0 |
| 20260903212029 | 60 | 241 | 1.0 | 8.0 | 0.00 | 0.00 | 0.00 | 100 | 960.0 |
| 20260903211927 | 59 | 234 | 1.0 | 8.0 | 0.00 | 0.00 | 0.00 | 100 | 960.1 |
| 20260903211724 | 59 | 234 | 2.0 | 8.0 | 0.00 | 0.00 | 0.00 | 100 | 960.0 |
| 20260903211521 | 59 | 0 | 1.0 | 5.0 | 0.00 | 0.00 | 0.00 | 100 | 960.0 |
| 20260903211420 | 59 | 0 | 1.0 | 5.0 | 0.00 | 0.00 | 0.00 | 100 | 960.0 |
| 20260903211317 | 59 | 0 | 0.0 | 3.0 | 0.00 | 0.00 | 0.00 | 100 | 960.0 |
| 20260903211114 | 59 | 234 | 1.0 | 8.0 | 0.00 | 0.00 | 0.00 | 100 | 960.0 |
| 20260903210911 | 59 | 220 | 1.0 | 8.0 | 0.00 | 0.00 | 0.00 | 100 | 959.9 |
| 20260903210810 | 59 | 224 | 1.0 | 8.0 | 0.00 | 0.00 | 0.00 | 100 | 959.9 |
| 20260903210708 | 59 | 222 | 1.0 | 4.0 | 0.00 | 0.00 | 0.00 | 100 | 960.1 |
| 20260903210504 | 60 | 230 | 1.0 | 4.0 | 0.00 | 0.00 | 0.00 | 100 | 960.0 |
| 20260903210248 | 60 | 229 | 1.0 | 5.0 | 0.00 | 0.00 | 0.00 | 100 | 959.9 |
| 20260903210148 | 61 | 232 | 1.0 | 5.0 | 0.00 | 0.00 | 0.00 | 100 | 959.9 |
| 20260903210045 | 61 | 254 | 1.0 | 7.0 | 0.00 | 0.00 | 0.00 | 100 | 959.9 |
| 20260903205842 | 61 | 244 | 1.0 | 7.0 | 0.00 | 0.00 | 0.00 | 100 | 959.9 |
| 20260903205639 | 61 | 229 | 1.0 | 5.0 | 0.00 | 0.00 | 0.00 | 100 | 960.0 |
| 20260903205538 | 61 | 237 | 2.0 | 5.0 | 0.00 | 0.00 | 0.00 | 100 | 959.9 |
| 20260903205435 | 61 | 274 | 2.0 | 5.0 | 0.00 | 0.00 | 0.00 | 100 | 959.9 |
| 20260903205232 | 60 | 286 | 2.0 | 4.0 | 0.00 | 0.00 | 0.00 | 100 | 960.0 |
| 20260903205029 | 60 | 258 | 1.0 | 4.0 | 0.00 | 0.00 | 0.00 | 100 | 960.0 |
| 20260903204827 | 59 | 0 | 1.0 | 3.0 | 0.00 | 0.00 | 0.00 | 100 | 960.1 |
| 20260903204624 | 60 | 169 | 2.0 | 4.0 | 0.00 | 0.00 | 0.00 | 100 | 960.0 |
| 20260903204421 | 60 | 146 | 2.0 | 4.0 | 0.00 | 0.00 | 0.00 | 100 | 959.9 |
| 20260903204320 | 60 | 146 | 2.0 | 4.0 | 0.00 | 0.00 | 0.00 | 100 | 959.8 |
| 20260903204218 | 60 | 150 | 2.0 | 4.0 | 0.00 | 0.00 | 0.00 | 100 | 959.9 |
| 20260903204016 | 61 | 136 | 2.0 | 4.0 | 0.00 | 0.00 | 0.00 | 100 | 959.9 |
| 20260903203812 | 61 | 91 | 3.0 | 6.0 | 0.00 | 0.00 | 0.00 | 100 | 960.0 |
| 20260903203711 | 61 | 91 | 3.0 | 6.0 | 0.00 | 0.00 | 0.00 | 100 | 960.0 |
| 20260903203609 | 61 | 89 | 2.0 | 6.0 | 0.00 | 0.00 | 0.00 | 100 | 960.1 |
| 20260903203406 | 61 | 110 | 2.0 | 4.0 | 0.00 | 0.00 | 0.00 | 100 | 960.0 |
| 20260903203202 | 60 | 105 | 2.0 | 3.0 | 0.00 | 0.00 | 0.00 | 100 | 960.1 |
| 20260903203101 | 60 | 114 | 1.0 | 4.0 | 0.00 | 0.00 | 0.00 | 100 | 960.0 |
| 20260903203000 | 60 | 130 | 1.0 | 4.0 | 0.00 | 0.00 | 0.00 | 100 | 960.1 |
| 20260903202756 | 60 | 0 | 1.0 | 5.0 | 0.00 | 0.00 | 0.00 | 100 | 960.1 |
| 20260903202553 | 61 | 312 | 2.0 | 6.0 | 0.00 | 0.00 | 0.00 | 100 | 960.2 |
| 20260903202452 | 61 | 316 | 2.0 | 6.0 | 0.00 | 0.00 | 0.00 | 100 | 960.1 |
| 20260903202350 | 61 | 306 | 2.0 | 6.0 | 0.00 | 0.00 | 0.00 | 100 | 960.1 |
| 20260903202146 | 61 | 10 | 2.0 | 3.0 | 0.00 | 0.00 | 0.00 | 100 | 960.1 |
| 20260903201943 | 61 | 340 | 2.0 | 4.0 | 0.00 | 0.00 | 0.00 | 100 | 960.0 |
| 20260903201844 | 62 | 337 | 1.0 | 4.0 | 0.00 | 0.00 | 0.00 | 100 | 960.0 |
| 20260903201740 | 62 | 317 | 1.0 | 4.0 | 0.00 | 0.00 | 0.00 | 100 | 960.1 |
| 20260903201537 | 62 | 348 | 1.0 | 5.0 | 0.00 | 0.00 | 0.00 | 100 | 959.9 |
| 20260903201333 | 61 | 6 | 1.0 | 5.0 | 0.00 | 0.00 | 0.00 | 100 | 960.0 |
| 20260903201234 | 62 | 0 | 1.0 | 2.0 | 0.00 | 0.00 | 0.00 | 100 | 960.0 |
| 20260903201131 | 62 | 0 | 1.0 | 2.0 | 0.00 | 0.00 | 0.00 | 100 | 960.1 |
| 20260903200928 | 62 | 355 | 2.0 | 3.0 | 0.00 | 0.00 | 0.00 | 100 | 960.0 |
| 20260903200724 | 62 | 355 | 1.0 | 3.0 | 0.00 | 0.00 | 0.00 | 100 | 960.2 |
| 20260903200623 | 62 | 344 | 1.0 | 6.0 | 0.00 | 0.00 | 0.00 | 100 | 960.1 |
| 20260903200521 | 62 | 270 | 2.0 | 10.0 | 0.00 | 0.00 | 0.00 | 100 | 960.1 |
| 20260903200318 | 63 | 257 | 4.0 | 15.0 | 0.00 | 0.00 | 0.00 | 100 | 960.2 |
| 20260903200115 | 63 | 244 | 5.0 | 17.0 | 0.00 | 0.00 | 0.00 | 100 | 960.0 |
| 20260903200014 | 64 | 252 | 5.0 | 17.0 | 0.00 | 0.00 | 0.00 | 100 | 960.0 |
| 20260903195911 | 64 | 253 | 6.0 | 17.0 | 0.00 | 0.00 | 0.00 | 100 | 960.1 |
| 20260903195707 | 64 | 270 | 5.0 | 16.0 | 0.00 | 0.00 | 0.00 | 100 | 960.0 |
| 20260903195504 | 62 | 276 | 3.0 | 16.0 | 0.00 | 0.00 | 0.00 | 100 | 960.1 |
| 20260903195404 | 62 | 262 | 2.0 | 6.0 | 0.00 | 0.00 | 0.00 | 100 | 960.1 |
| 20260903195301 | 62 | 246 | 2.0 | 7.0 | 0.00 | 0.00 | 0.00 | 100 | 960.1 |
| 20260903195058 | 62 | 234 | 1.0 | 7.0 | 0.00 | 0.00 | 0.00 | 100 | 960.1 |
| 20260903194855 | 62 | 230 | 1.0 | 3.0 | 0.00 | 0.00 | 0.00 | 100 | 960.0 |
| 20260903194754 | 63 | 240 | 1.0 | 7.0 | 0.00 | 0.00 | 0.00 | 100 | 960.2 |
| 20260903194652 | 63 | 285 | 2.0 | 7.0 | 0.00 | 0.00 | 0.00 | 100 | 960.2 |
| 20260903194449 | 63 | 269 | 4.0 | 12.0 | 0.00 | 0.00 | 0.00 | 100 | 960.2 |
| 20260903194246 | 64 | 265 | 5.0 | 12.0 | 0.00 | 0.00 | 0.00 | 100 | 960.1 |
| 20260903194145 | 64 | 273 | 6.0 | 12.0 | 0.00 | 0.00 | 0.00 | 100 | 960.2 |
| 20260903194042 | 63 | 270 | 6.0 | 12.0 | 0.00 | 0.00 | 0.00 | 100 | 960.1 |
| 20260903193839 | 62 | 261 | 5.0 | 12.0 | 0.00 | 0.00 | 0.00 | 100 | 960.1 |
| 20260903193636 | 62 | 244 | 3.0 | 11.0 | 0.00 | 0.00 | 0.00 | 100 | 960.2 |
| 20260903193535 | 62 | 265 | 3.0 | 11.0 | 0.00 | 0.00 | 0.00 | 100 | 960.1 |
| 20260903193432 | 62 | 268 | 4.0 | 17.0 | 0.00 | 0.00 | 0.00 | 100 | 960.2 |
| 20260903193229 | 62 | 273 | 4.0 | 17.0 | 0.00 | 0.00 | 0.00 | 100 | 960.2 |
| 20260903193025 | 58 | 0 | 1.0 | 9.0 | 0.00 | 0.00 | 0.00 | 100 | 960.1 |
| 20260903192925 | 59 | 0 | 1.0 | 4.0 | 0.00 | 0.00 | 0.00 | 100 | 960.3 |
| 20260903192822 | 59 | 0 | 1.0 | 5.0 | 0.00 | 0.00 | 0.00 | 100 | 960.2 |
| 20260903192619 | 59 | 244 | 1.0 | 5.0 | 0.00 | 0.00 | 0.00 | 100 | 960.2 |
| 20260903192415 | 59 | 242 | 1.0 | 4.0 | 0.00 | 0.00 | 0.00 | 100 | 960.1 |
| 20260903192315 | 59 | 0 | 1.0 | 4.0 | 0.00 | 0.00 | 0.00 | 100 | 960.2 |
| 20260903192213 | 59 | 0 | 1.0 | 4.0 | 0.00 | 0.00 | 0.00 | 100 | 960.2 |
| 20260903192009 | 59 | 0 | 1.0 | 4.0 | 0.00 | 0.00 | 0.00 | 100 | 960.3 |
| 20260903191806 | 60 | 0 | 1.0 | 3.0 | 0.00 | 0.00 | 0.00 | 100 | 960.3 |
| 20260903191705 | 60 | 0 | 1.0 | 3.0 | 0.00 | 0.00 | 0.00 | 100 | 960.2 |
| 20260903191603 | 60 | 0 | 1.0 | 3.0 | 0.00 | 0.00 | 0.00 | 100 | 960.3 |
| 20260903191400 | 60 | 248 | 2.0 | 6.0 | 0.00 | 0.00 | 0.00 | 100 | 960.3 |
| 20260903191157 | 60 | 239 | 1.0 | 6.0 | 0.00 | 0.00 | 0.00 | 100 | 960.2 |
| 20260903191056 | 60 | 238 | 1.0 | 6.0 | 0.00 | 0.00 | 0.00 | 100 | 960.4 |
| 20260903190953 | 60 | 0 | 1.0 | 3.0 | 0.00 | 0.00 | 0.00 | 100 | 960.4 |
| 20260903190750 | 60 | 215 | 1.0 | 5.0 | 0.00 | 0.00 | 0.00 | 100 | 960.3 |
| 20260903190547 | 60 | 217 | 1.0 | 5.0 | 0.00 | 0.00 | 0.00 | 100 | 960.4 |
| 20260903190446 | 60 | 223 | 1.0 | 5.0 | 0.00 | 0.00 | 0.00 | 100 | 960.4 |
| 20260903190344 | 59 | 231 | 2.0 | 6.0 | 0.00 | 0.00 | 0.00 | 100 | 960.4 |
| 20260903190141 | 59 | 241 | 2.0 | 6.0 | 0.00 | 0.00 | 0.00 | 100 | 960.3 |
| 20260903185937 | 59 | 0 | 1.0 | 4.0 | 0.00 | 0.00 | 0.00 | 100 | 960.3 |
| 20260903185837 | 60 | 0 | 1.0 | 6.0 | 0.00 | 0.00 | 0.00 | 100 | 960.2 |
| 20260903185734 | 60 | 220 | 1.0 | 6.0 | 0.00 | 0.00 | 0.00 | 100 | 960.2 |
| 20260903185531 | 59 | 237 | 1.0 | 6.0 | 0.00 | 0.00 | 0.00 | 100 | 960.3 |
| 20260903185328 | 59 | 0 | 1.0 | 6.0 | 0.00 | 0.00 | 0.00 | 100 | 960.4 |
| 20260903185227 | 59 | 0 | 1.0 | 4.0 | 0.00 | 0.00 | 0.00 | 100 | 960.4 |
| 20260903185125 | 59 | 0 | 1.0 | 4.0 | 0.00 | 0.00 | 0.00 | 100 | 960.4 |
| 20260903184923 | 59 | 230 | 1.0 | 4.0 | 0.00 | 0.00 | 0.00 | 100 | 960.3 |
| 20260903184719 | 60 | 0 | 1.0 | 3.0 | 0.00 | 0.00 | 0.00 | 100 | 960.3 |
| 20260903184619 | 60 | 0 | 1.0 | 3.0 | 0.00 | 0.00 | 0.00 | 100 | 960.3 |
| 20260903184516 | 60 | 0 | 1.0 | 4.0 | 0.00 | 0.00 | 0.00 | 100 | 960.3 |
| 20260903184314 | 59 | 228 | 1.0 | 4.0 | 0.00 | 0.00 | 0.00 | 100 | 960.2 |
| 20260903184110 | 59 | 0 | 1.0 | 4.0 | 0.00 | 0.00 | 0.00 | 100 | 960.3 |
| 20260903184009 | 59 | 0 | 0.0 | 3.0 | 0.00 | 0.00 | 0.00 | 100 | 960.3 |
| 20260903183907 | 59 | 0 | 1.0 | 4.0 | 0.00 | 0.00 | 0.00 | 100 | 960.2 |
| 20260903183704 | 59 | 0 | 1.0 | 4.0 | 0.00 | 0.00 | 0.00 | 100 | 960.3 |
| 20260903183501 | 59 | 0 | 1.0 | 4.0 | 0.00 | 0.00 | 0.00 | 100 | 960.2 |
| 20260903183259 | 59 | 0 | 1.0 | 4.0 | 0.00 | 0.00 | 0.00 | 100 | 960.3 |
| 20260903183055 | 59 | 0 | 1.0 | 3.0 | 0.00 | 0.00 | 0.00 | 100 | 960.2 |
| 20260903182852 | 59 | 0 | 1.0 | 4.0 | 0.00 | 0.00 | 0.00 | 100 | 960.2 |
| 20260903182752 | 59 | 0 | 1.0 | 4.0 | 0.00 | 0.00 | 0.00 | 100 | 960.2 |
| 20260903182649 | 59 | 0 | 1.0 | 4.0 | 0.00 | 0.00 | 0.00 | 100 | 960.2 |
| 20260903182446 | 59 | 0 | 1.0 | 4.0 | 0.00 | 0.00 | 0.00 | 100 | 960.2 |
| 20260903182233 | 59 | 0 | 0.0 | 4.0 | 0.00 | 0.00 | 0.00 | 100 | 960.1 |
| 20260903182132 | 59 | 0 | 0.0 | 4.0 | 0.00 | 0.00 | 0.00 | 100 | 960.2 |
| 20260903182030 | 59 | 0 | 0.0 | 2.0 | 0.00 | 0.00 | 0.00 | 100 | 960.2 |
| 20260903181827 | 59 | 0 | 0.0 | 2.0 | 0.00 | 0.00 | 0.00 | 100 | 960.2 |
| 20260903181624 | 59 | 0 | 0.0 | 2.0 | 0.00 | 0.00 | 0.00 | 100 | 960.2 |
| 20260903181523 | 59 | 0 | 0.0 | 2.0 | 0.00 | 0.00 | 0.00 | 100 | 960.1 |
| 20260903181421 | 59 | 0 | 0.0 | 3.0 | 0.00 | 0.00 | 0.00 | 100 | 960.0 |
| 20260903181217 | 59 | 0 | 1.0 | 3.0 | 0.00 | 0.00 | 0.00 | 100 | 960.0 |
| 20260903181014 | 59 | 0 | 1.0 | 2.0 | 0.00 | 0.00 | 0.00 | 100 | 960.1 |
| 20260903180913 | 59 | 0 | 1.0 | 3.0 | 0.00 | 0.00 | 0.00 | 100 | 960.1 |
| 20260903180811 | 59 | 0 | 1.0 | 3.0 | 0.00 | 0.00 | 0.00 | 100 | 960.1 |
| 20260903180607 | 59 | 0 | 0.0 | 2.0 | 0.00 | 0.00 | 0.00 | 100 | 960.1 |
| 20260903180404 | 60 | 0 | 0.0 | 2.0 | 0.00 | 0.00 | 0.00 | 100 | 960.0 |
| 20260903180304 | 60 | 0 | 0.0 | 3.0 | 0.00 | 0.00 | 0.00 | 100 | 960.0 |
| 20260903180202 | 60 | 0 | 0.0 | 3.0 | 0.00 | 0.00 | 0.00 | 100 | 960.0 |
| 20260903175959 | 60 | 0 | 0.0 | 3.0 | 0.00 | 0.00 | 0.00 | 100 | 960.0 |
| 20260903175756 | 60 | 0 | 1.0 | 3.0 | 0.00 | 0.00 | 0.00 | 100 | 959.9 |
| 20260903175655 | 60 | 0 | 0.0 | 3.0 | 0.00 | 0.00 | 0.00 | 100 | 960.0 |
| 20260903175553 | 60 | 0 | 1.0 | 3.0 | 0.00 | 0.00 | 0.00 | 100 | 960.0 |
| 20260903175350 | 61 | 0 | 1.0 | 3.0 | 0.00 | 0.00 | 0.00 | 100 | 960.1 |
| 20260903175147 | 61 | 0 | 1.0 | 3.0 | 0.00 | 0.00 | 0.00 | 100 | 960.2 |
| 20260903175046 | 61 | 0 | 1.0 | 3.0 | 0.00 | 0.00 | 0.00 | 100 | 960.1 |
| 20260903174943 | 62 | 0 | 1.0 | 5.0 | 0.00 | 0.00 | 0.00 | 100 | 960.2 |
| 20260903174740 | 62 | 0 | 1.0 | 5.0 | 0.00 | 0.00 | 0.00 | 100 | 960.2 |
| 20260903174538 | 62 | 0 | 1.0 | 4.0 | 0.00 | 0.00 | 0.00 | 100 | 960.1 |
| 20260903174437 | 62 | 0 | 1.0 | 4.0 | 0.00 | 0.00 | 0.00 | 100 | 960.1 |
| 20260903174334 | 62 | 0 | 1.0 | 3.0 | 0.00 | 0.00 | 0.00 | 100 | 960.2 |
| 20260903174131 | 62 | 0 | 0.0 | 3.0 | 0.00 | 0.00 | 0.00 | 100 | 960.1 |
| 20260903173927 | 62 | 0 | 0.0 | 3.0 | 0.00 | 0.00 | 0.00 | 100 | 960.1 |
| 20260903173827 | 62 | 0 | 1.0 | 3.0 | 0.00 | 0.00 | 0.00 | 100 | 960.0 |
| 20260903173724 | 62 | 0 | 1.0 | 3.0 | 0.00 | 0.00 | 0.00 | 100 | 960.0 |
| 20260903173521 | 62 | 0 | 1.0 | 3.0 | 0.00 | 0.00 | 0.00 | 100 | 960.0 |
| 20260903173318 | 62 | 0 | 1.0 | 3.0 | 0.00 | 0.00 | 0.00 | 100 | 960.0 |
| 20260903173218 | 62 | 0 | 1.0 | 3.0 | 0.00 | 0.00 | 0.00 | 100 | 960.0 |
| 20260903173116 | 63 | 0 | 1.0 | 4.0 | 0.00 | 0.00 | 0.00 | 100 | 959.9 |
| 20260903172912 | 63 | 263 | 1.0 | 10.0 | 0.00 | 0.00 | 0.00 | 100 | 960.1 |
| 20260903172709 | 64 | 260 | 2.0 | 10.0 | 0.00 | 0.00 | 0.00 | 100 | 960.0 |
| 20260903172506 | 63 | 0 | 1.0 | 6.0 | 0.00 | 0.00 | 0.00 | 100 | 960.1 |
| 20260903172306 | 63 | 0 | 0.0 | 3.0 | 0.00 | 0.00 | 0.00 | 100 | 960.1 |
| 20260903172059 | 64 | 0 | 1.0 | 4.0 | 0.00 | 0.00 | 0.00 | 100 | 960.1 |
| 20260903171958 | 63 | 0 | 1.0 | 4.0 | 0.00 | 0.00 | 0.00 | 100 | 960.1 |
| 20260903171856 | 63 | 0 | 1.0 | 4.0 | 0.00 | 0.00 | 0.00 | 100 | 960.1 |
| 20260903171653 | 63 | 0 | 1.0 | 2.0 | 0.00 | 0.00 | 0.00 | 100 | 960.1 |
| 20260903171450 | 63 | 0 | 0.0 | 3.0 | 0.00 | 0.00 | 0.00 | 100 | 960.1 |
| 20260903171350 | 63 | 0 | 0.0 | 2.0 | 0.00 | 0.00 | 0.00 | 100 | 960.0 |
| 20260903171248 | 63 | 0 | 0.0 | 2.0 | 0.00 | 0.00 | 0.00 | 100 | 959.9 |
| 20260903171045 | 64 | 0 | 0.0 | 3.0 | 0.00 | 0.00 | 0.00 | 100 | 959.9 |
| 20260903170842 | 64 | 0 | 1.0 | 3.0 | 0.00 | 0.00 | 0.00 | 100 | 960.0 |
| 20260903170741 | 64 | 0 | 1.0 | 2.0 | 0.00 | 0.00 | 0.00 | 100 | 960.0 |
| 20260903170638 | 64 | 0 | 0.0 | 2.0 | 0.00 | 0.00 | 0.00 | 100 | 959.9 |
| 20260903170436 | 64 | 0 | 0.0 | 2.0 | 0.00 | 0.00 | 0.00 | 100 | 959.9 |
| 20260903170233 | 64 | 0 | 0.0 | 2.0 | 0.00 | 0.00 | 0.00 | 100 | 960.0 |
| 20260903170133 | 65 | 0 | 0.0 | 2.0 | 0.00 | 0.00 | 0.00 | 100 | 960.0 |
| 20260903170030 | 65 | 0 | 0.0 | 2.0 | 0.00 | 0.00 | 0.00 | 100 | 960.0 |
| 20260903165827 | 65 | 0 | 0.0 | 2.0 | 0.00 | 0.00 | 0.00 | 100 | 960.0 |
| 20260903165624 | 65 | 0 | 0.0 | 2.0 | 0.00 | 0.00 | 0.00 | 100 | 960.1 |
| 20260903165523 | 65 | 0 | 0.0 | 2.0 | 0.00 | 0.00 | 0.00 | 100 | 960.0 |
| 20260903165421 | 65 | 0 | 0.0 | 1.0 | 0.00 | 0.00 | 0.00 | 100 | 960.0 |
| 20260903165217 | 66 | 0 | 0.0 | 1.0 | 0.00 | 0.00 | 0.00 | 100 | 960.0 |
| 20260903165014 | 66 | 0 | 0.0 | 2.0 | 0.00 | 0.00 | 0.00 | 100 | 959.9 |
| 20260903164913 | 66 | 0 | 0.0 | 2.0 | 0.00 | 0.00 | 0.00 | 100 | 960.0 |
| 20260903164811 | 66 | 0 | 0.0 | 2.0 | 0.00 | 0.00 | 0.00 | 100 | 960.0 |
| 20260903164608 | 66 | 0 | 0.0 | 2.0 | 0.00 | 0.00 | 0.00 | 100 | 960.1 |
| 20260903164405 | 66 | 0 | 0.0 | 2.0 | 0.00 | 0.00 | 0.00 | 100 | 960.1 |
| 20260903164304 | 66 | 0 | 0.0 | 2.0 | 0.00 | 0.00 | 0.00 | 100 | 960.0 |
| 20260903164201 | 66 | 0 | 0.0 | 1.0 | 0.00 | 0.00 | 0.00 | 100 | 960.0 |
| 20260903163958 | 66 | 0 | 0.0 | 2.0 | 0.00 | 0.00 | 0.00 | 100 | 960.0 |
| 20260903163755 | 67 | 0 | 0.0 | 2.0 | 0.00 | 0.00 | 0.00 | 100 | 960.0 |
| 20260903163654 | 67 | 0 | 0.0 | 2.0 | 0.00 | 0.00 | 0.00 | 100 | 960.0 |
| 20260903163551 | 67 | 0 | 0.0 | 2.0 | 0.00 | 0.00 | 0.00 | 100 | 960.0 |
| 20260903163348 | 67 | 0 | 0.0 | 2.0 | 0.00 | 0.00 | 0.00 | 100 | 960.0 |
| 20260903163144 | 67 | 0 | 0.0 | 2.0 | 0.00 | 0.00 | 0.00 | 100 | 960.0 |
| 20260903163044 | 67 | 0 | 0.0 | 2.0 | 0.00 | 0.00 | 0.00 | 100 | 959.9 |
| 20260903162942 | 67 | 0 | 0.0 | 2.0 | 0.00 | 0.00 | 0.00 | 100 | 960.0 |
| 20260903162739 | 67 | 0 | 0.0 | 2.0 | 0.00 | 0.00 | 0.00 | 100 | 959.9 |
| 20260903162537 | 67 | 0 | 0.0 | 2.0 | 0.00 | 0.00 | 0.00 | 100 | 960.0 |
| 20260903162436 | 67 | 0 | 0.0 | 2.0 | 0.00 | 0.00 | 0.00 | 100 | 959.8 |
| 20260903162333 | 67 | 0 | 0.0 | 1.0 | 0.00 | 0.00 | 0.00 | 100 | 960.0 |
| 20260903162130 | 67 | 0 | 0.0 | 2.0 | 0.00 | 0.00 | 0.00 | 100 | 959.9 |
| 20260903161927 | 66 | 0 | 0.0 | 2.0 | 0.00 | 0.00 | 0.00 | 100 | 959.9 |
| 20260903161826 | 66 | 0 | 0.0 | 2.0 | 0.00 | 0.00 | 0.00 | 100 | 960.0 |
| 20260903161724 | 66 | 0 | 0.0 | 3.0 | 0.00 | 0.00 | 0.00 | 100 | 960.0 |
| 20260903161520 | 66 | 268 | 1.0 | 4.0 | 0.00 | 0.00 | 0.00 | 100 | 960.0 |
| 20260903161317 | 66 | 270 | 2.0 | 4.0 | 0.00 | 0.00 | 0.00 | 100 | 960.0 |
| 20260903161217 | 67 | 269 | 1.0 | 3.0 | 0.00 | 0.00 | 0.00 | 100 | 960.0 |
| 20260903161115 | 67 | 267 | 1.0 | 4.0 | 0.00 | 0.00 | 0.00 | 100 | 960.0 |
| 20260903160912 | 67 | 267 | 1.0 | 4.0 | 0.00 | 0.00 | 0.00 | 100 | 959.9 |
| 20260903160708 | 67 | 0 | 0.0 | 2.0 | 0.00 | 0.00 | 0.00 | 100 | 960.0 |
| 20260903160607 | 67 | 320 | 1.0 | 3.0 | 0.00 | 0.00 | 0.00 | 100 | 960.0 |
| 20260903160505 | 67 | 320 | 1.0 | 3.0 | 0.00 | 0.00 | 0.00 | 100 | 960.0 |
| 20260903160301 | 67 | 298 | 1.0 | 3.0 | 0.00 | 0.00 | 0.00 | 100 | 959.9 |
| 20260903160058 | 67 | 268 | 1.0 | 3.0 | 0.00 | 0.00 | 0.00 | 100 | 960.0 |
| 20260903155957 | 67 | 266 | 1.0 | 4.0 | 0.00 | 0.00 | 0.00 | 100 | 959.9 |
| 20260903155855 | 67 | 253 | 1.0 | 4.0 | 0.00 | 0.00 | 0.00 | 100 | 959.9 |
| 20260903155652 | 67 | 0 | 1.0 | 4.0 | 0.00 | 0.00 | 0.00 | 100 | 959.9 |
| 20260903155448 | 68 | 0 | 0.0 | 4.0 | 0.00 | 0.00 | 0.00 | 100 | 959.9 |
| 20260903155348 | 68 | 0 | 0.0 | 2.0 | 0.00 | 0.00 | 0.00 | 100 | 959.9 |
| 20260903155246 | 68 | 0 | 0.0 | 2.0 | 0.00 | 0.00 | 0.00 | 100 | 959.9 |
| 20260903155043 | 68 | 0 | 0.0 | 3.0 | 0.00 | 0.00 | 0.00 | 100 | 960.0 |
| 20260903154839 | 68 | 0 | 0.0 | 4.0 | 0.00 | 0.00 | 0.00 | 100 | 959.9 |
| 20260903154739 | 68 | 0 | 1.0 | 4.0 | 0.00 | 0.00 | 0.00 | 100 | 960.0 |
| 20260903154636 | 68 | 0 | 1.0 | 4.0 | 0.00 | 0.00 | 0.00 | 100 | 960.0 |
| 20260903154420 | 68 | 0 | 1.0 | 3.0 | 0.00 | 0.00 | 0.00 | 100 | 960.0 |
| 20260903154217 | 68 | 227 | 1.0 | 4.0 | 0.00 | 0.00 | 0.00 | 100 | 960.0 |
| 20260903154116 | 68 | 231 | 1.0 | 4.0 | 0.00 | 0.00 | 0.00 | 100 | 960.1 |
| 20260903154013 | 68 | 239 | 1.0 | 4.0 | 0.00 | 0.00 | 0.00 | 100 | 960.1 |
| 20260903153810 | 68 | 251 | 1.0 | 4.0 | 0.00 | 0.00 | 0.00 | 100 | 960.2 |
| 20260903153607 | 68 | 0 | 1.0 | 3.0 | 0.00 | 0.00 | 0.00 | 100 | 960.1 |
| 20260903153507 | 67 | 141 | 1.0 | 5.0 | 0.00 | 0.00 | 0.00 | 100 | 960.1 |
| 20260903153404 | 67 | 135 | 2.0 | 5.0 | 0.00 | 0.00 | 0.00 | 100 | 960.2 |
| 20260903153201 | 67 | 152 | 3.0 | 5.0 | 0.00 | 0.00 | 0.00 | 100 | 960.1 |
| 20260903152958 | 67 | 301 | 3.0 | 5.0 | 0.00 | 0.00 | 0.00 | 100 | 960.0 |
| 20260903152857 | 67 | 305 | 3.0 | 5.0 | 0.00 | 0.00 | 0.00 | 100 | 960.1 |
| 20260903152755 | 67 | 307 | 3.0 | 5.0 | 0.00 | 0.00 | 0.00 | 100 | 960.1 |
| 20260903152552 | 67 | 292 | 2.0 | 5.0 | 0.00 | 0.00 | 0.00 | 100 | 960.1 |
| 20260903152349 | 67 | 274 | 2.0 | 5.0 | 0.00 | 0.00 | 0.00 | 100 | 960.1 |
| 20260903152248 | 67 | 278 | 2.0 | 5.0 | 0.00 | 0.00 | 0.00 | 100 | 960.0 |
| 20260903152146 | 67 | 287 | 3.0 | 6.0 | 0.00 | 0.00 | 0.00 | 100 | 960.2 |
| 20260903151942 | 67 | 305 | 3.0 | 6.0 | 0.00 | 0.00 | 0.00 | 100 | 960.2 |
| 20260903151740 | 67 | 305 | 2.0 | 4.0 | 0.00 | 0.00 | 0.00 | 100 | 960.2 |
| 20260903151639 | 67 | 298 | 2.0 | 5.0 | 0.00 | 0.00 | 0.00 | 100 | 960.1 |
| 20260903151536 | 67 | 284 | 2.0 | 5.0 | 0.00 | 0.00 | 0.00 | 100 | 960.1 |
| 20260903151333 | 67 | 299 | 3.0 | 5.0 | 0.00 | 0.00 | 0.00 | 100 | 960.2 |
| 20260903151130 | 67 | 295 | 2.0 | 5.0 | 0.00 | 0.00 | 0.00 | 100 | 960.2 |
| 20260903151029 | 67 | 277 | 2.0 | 7.0 | 0.00 | 0.00 | 0.00 | 100 | 960.2 |
| 20260903150927 | 67 | 262 | 2.0 | 7.0 | 0.00 | 0.00 | 0.00 | 100 | 960.2 |
| 20260903150724 | 67 | 282 | 5.0 | 8.0 | 0.00 | 0.00 | 0.00 | 100 | 960.2 |
| 20260903150520 | 66 | 294 | 6.0 | 8.0 | 0.00 | 0.00 | 0.00 | 100 | 960.3 |
| 20260903150420 | 66 | 299 | 6.0 | 8.0 | 0.00 | 0.00 | 0.00 | 100 | 960.2 |
| 20260903150317 | 67 | 313 | 5.0 | 7.0 | 0.00 | 0.00 | 0.00 | 100 | 960.2 |
| 20260903150114 | 67 | 314 | 4.0 | 8.0 | 0.00 | 0.00 | 0.00 | 100 | 960.1 |
| 20260903145911 | 67 | 321 | 4.0 | 8.0 | 0.00 | 0.00 | 0.00 | 100 | 960.2 |
| 20260903145810 | 67 | 319 | 3.0 | 8.0 | 0.00 | 0.00 | 0.00 | 100 | 960.2 |
| 20260903145707 | 67 | 306 | 3.0 | 5.0 | 0.00 | 0.00 | 0.00 | 100 | 960.2 |
| 20260903145504 | 67 | 276 | 3.0 | 6.0 | 0.00 | 0.00 | 0.00 | 100 | 960.2 |
| 20260903145301 | 67 | 302 | 5.0 | 12.0 | 0.00 | 0.00 | 0.00 | 100 | 960.2 |
| 20260903145200 | 67 | 301 | 5.0 | 12.0 | 0.00 | 0.00 | 0.00 | 100 | 960.1 |
| 20260903145057 | 67 | 302 | 6.0 | 12.0 | 0.00 | 0.00 | 0.00 | 100 | 960.2 |
| 20260903144854 | 67 | 300 | 6.0 | 9.0 | 0.00 | 0.00 | 0.00 | 100 | 960.1 |
| 20260903144651 | 67 | 312 | 6.0 | 9.0 | 0.00 | 0.00 | 0.00 | 100 | 960.1 |
| 20260903144551 | 67 | 317 | 6.0 | 10.0 | 0.00 | 0.00 | 0.00 | 100 | 960.2 |
| 20260903144447 | 67 | 319 | 4.0 | 10.0 | 0.00 | 0.00 | 0.00 | 100 | 960.2 |
| 20260903144244 | 67 | 321 | 4.0 | 10.0 | 0.00 | 0.00 | 0.00 | 100 | 960.1 |
| 20260903144041 | 67 | 330 | 4.0 | 10.0 | 0.00 | 0.00 | 0.00 | 100 | 960.0 |
| 20260903143838 | 67 | 326 | 3.0 | 6.0 | 0.00 | 0.00 | 0.00 | 100 | 960.1 |
| 20260903143634 | 67 | 282 | 4.0 | 7.0 | 0.00 | 0.00 | 0.00 | 100 | 960.1 |
| 20260903143431 | 67 | 261 | 4.0 | 8.0 | 0.00 | 0.00 | 0.00 | 100 | 960.1 |
| 20260903143330 | 67 | 262 | 4.0 | 10.0 | 0.00 | 0.00 | 0.00 | 100 | 960.1 |
| 20260903143228 | 67 | 271 | 4.0 | 10.0 | 0.00 | 0.00 | 0.00 | 100 | 960.1 |
| 20260903143025 | 67 | 296 | 5.0 | 10.0 | 0.00 | 0.00 | 0.00 | 100 | 960.1 |
| 20260903142822 | 67 | 319 | 4.0 | 8.0 | 0.00 | 0.00 | 0.00 | 100 | 960.2 |
| 20260903142721 | 67 | 313 | 5.0 | 10.0 | 0.00 | 0.00 | 0.00 | 100 | 960.1 |
| 20260903142619 | 67 | 311 | 6.0 | 10.0 | 0.00 | 0.00 | 0.00 | 100 | 960.2 |
| 20260903142415 | 67 | 291 | 6.0 | 10.0 | 0.00 | 0.00 | 0.00 | 100 | 960.2 |
| 20260903142212 | 67 | 285 | 5.0 | 10.0 | 0.00 | 0.00 | 0.00 | 100 | 960.2 |
| 20260903142111 | 67 | 285 | 5.0 | 10.0 | 0.00 | 0.00 | 0.00 | 100 | 960.2 |
| 20260903142009 | 67 | 288 | 5.0 | 10.0 | 0.00 | 0.00 | 0.00 | 100 | 960.2 |
| 20260903141806 | 67 | 290 | 6.0 | 9.0 | 0.00 | 0.00 | 0.00 | 100 | 960.1 |
| 20260903141604 | 67 | 287 | 6.0 | 9.0 | 0.00 | 0.00 | 0.00 | 100 | 960.3 |
| 20260903141503 | 67 | 284 | 6.0 | 9.0 | 0.00 | 0.00 | 0.00 | 100 | 960.2 |
| 20260903141400 | 67 | 282 | 6.0 | 11.0 | 0.00 | 0.00 | 0.00 | 100 | 960.2 |
| 20260903141157 | 67 | 284 | 6.0 | 11.0 | 0.00 | 0.00 | 0.00 | 100 | 960.2 |
| 20260903140954 | 67 | 294 | 4.0 | 8.0 | 0.00 | 0.00 | 0.00 | 100 | 960.3 |
| 20260903140853 | 67 | 304 | 4.0 | 7.0 | 0.00 | 0.00 | 0.00 | 100 | 960.3 |
| 20260903140750 | 67 | 311 | 4.0 | 7.0 | 0.00 | 0.00 | 0.00 | 100 | 960.3 |
| 20260903140547 | 68 | 298 | 3.0 | 6.0 | 0.00 | 0.00 | 0.00 | 100 | 960.2 |
| 20260903140344 | 68 | 287 | 4.0 | 6.0 | 0.00 | 0.00 | 0.00 | 100 | 960.2 |
| 20260903140243 | 67 | 288 | 4.0 | 7.0 | 0.00 | 0.00 | 0.00 | 100 | 960.2 |
| 20260903140141 | 67 | 289 | 5.0 | 8.0 | 0.00 | 0.00 | 0.00 | 100 | 960.2 |
| 20260903135937 | 67 | 292 | 6.0 | 10.0 | 0.00 | 0.00 | 0.00 | 100 | 960.1 |
| 20260903135734 | 68 | 288 | 6.0 | 10.0 | 0.00 | 0.00 | 0.00 | 100 | 960.1 |
| 20260903135634 | 67 | 288 | 6.0 | 10.0 | 0.00 | 0.00 | 0.00 | 100 | 960.1 |
| 20260903135531 | 68 | 287 | 6.0 | 11.0 | 0.00 | 0.00 | 0.00 | 100 | 960.1 |
| 20260903135328 | 67 | 287 | 7.0 | 11.0 | 0.00 | 0.00 | 0.00 | 100 | 960.1 |
| 20260903135125 | 67 | 298 | 7.0 | 11.0 | 0.00 | 0.00 | 0.00 | 100 | 960.1 |
| 20260903135024 | 67 | 301 | 6.0 | 9.0 | 0.00 | 0.00 | 0.00 | 100 | 960.1 |
| 20260903134922 | 67 | 301 | 5.0 | 8.0 | 0.00 | 0.00 | 0.00 | 100 | 960.1 |
| 20260903134718 | 67 | 287 | 6.0 | 13.0 | 0.00 | 0.00 | 0.00 | 100 | 960.2 |
| 20260903134515 | 67 | 292 | 7.0 | 13.0 | 0.00 | 0.00 | 0.00 | 100 | 960.1 |
| 20260903134415 | 67 | 298 | 7.0 | 13.0 | 0.00 | 0.00 | 0.00 | 100 | 960.1 |
| 20260903134313 | 67 | 299 | 6.0 | 11.0 | 0.00 | 0.00 | 0.00 | 100 | 960.1 |
| 20260903134110 | 67 | 300 | 7.0 | 13.0 | 0.00 | 0.00 | 0.00 | 100 | 960.2 |
| 20260903133907 | 66 | 309 | 8.0 | 14.0 | 0.00 | 0.00 | 0.00 | 100 | 960.3 |
| 20260903133806 | 66 | 312 | 8.0 | 14.0 | 0.00 | 0.00 | 0.00 | 100 | 960.2 |
| 20260903133704 | 66 | 315 | 8.0 | 14.0 | 0.00 | 0.00 | 0.00 | 100 | 960.1 |
| 20260903133500 | 66 | 307 | 8.0 | 13.0 | 0.00 | 0.00 | 0.00 | 100 | 960.3 |
| 20260903133257 | 66 | 304 | 8.0 | 13.0 | 0.00 | 0.00 | 0.00 | 100 | 960.2 |
| 20260903133156 | 66 | 307 | 8.0 | 14.0 | 0.00 | 0.00 | 0.00 | 100 | 960.4 |
| 20260903133053 | 66 | 311 | 8.0 | 14.0 | 0.00 | 0.00 | 0.00 | 100 | 960.3 |
| 20260903132850 | 66 | 314 | 10.0 | 16.0 | 0.00 | 0.00 | 0.00 | 100 | 960.3 |
| 20260903132648 | 66 | 313 | 10.0 | 16.0 | 0.00 | 0.00 | 0.00 | 100 | 960.3 |
| 20260903132546 | 66 | 311 | 10.0 | 16.0 | 0.00 | 0.00 | 0.00 | 100 | 960.3 |
| 20260903132444 | 66 | 306 | 9.0 | 15.0 | 0.00 | 0.00 | 0.00 | 100 | 960.3 |
| 20260903132240 | 66 | 309 | 8.0 | 14.0 | 0.00 | 0.00 | 0.00 | 100 | 960.4 |
| 20260903132037 | 66 | 305 | 9.0 | 16.0 | 0.00 | 0.00 | 0.00 | 100 | 960.2 |
| 20260903131834 | 66 | 301 | 10.0 | 16.0 | 0.00 | 0.00 | 0.00 | 100 | 960.4 |
| 20260903131631 | 66 | 299 | 10.0 | 16.0 | 0.00 | 0.00 | 0.00 | 100 | 960.4 |
| 20260903131428 | 66 | 300 | 11.0 | 20.0 | 0.00 | 0.00 | 0.00 | 100 | 960.4 |
| 20260903131327 | 66 | 300 | 10.0 | 20.0 | 0.00 | 0.00 | 0.00 | 100 | 960.4 |
| 20260903131225 | 66 | 302 | 10.0 | 20.0 | 0.00 | 0.00 | 0.00 | 100 | 960.3 |
| 20260903131022 | 66 | 302 | 8.0 | 12.0 | 0.00 | 0.00 | 0.00 | 100 | 960.3 |
| 20260903130819 | 66 | 303 | 8.0 | 13.0 | 0.00 | 0.00 | 0.00 | 100 | 960.3 |
| 20260903130718 | 66 | 302 | 9.0 | 16.0 | 0.00 | 0.00 | 0.00 | 100 | 960.3 |
| 20260903130616 | 66 | 302 | 10.0 | 16.0 | 0.00 | 0.00 | 0.00 | 100 | 960.2 |
| 20260903130403 | 66 | 310 | 9.0 | 16.0 | 0.00 | 0.00 | 0.00 | 100 | 960.2 |
| 20260903130200 | 67 | 308 | 10.0 | 17.0 | 0.00 | 0.00 | 0.00 | 100 | 960.2 |
| 20260903130100 | 67 | 304 | 11.0 | 18.0 | 0.00 | 0.00 | 0.00 | 100 | 960.3 |
| 20260903125957 | 67 | 301 | 12.0 | 18.0 | 0.00 | 0.00 | 0.00 | 100 | 960.2 |
| 20260903125754 | 67 | 298 | 10.0 | 18.0 | 0.00 | 0.00 | 0.00 | 100 | 960.2 |
| 20260903125551 | 67 | 294 | 8.0 | 15.0 | 0.00 | 0.00 | 0.00 | 100 | 960.3 |
| 20260903125451 | 68 | 289 | 8.0 | 15.0 | 0.00 | 0.00 | 0.00 | 100 | 960.3 |
| 20260903125348 | 68 | 286 | 9.0 | 15.0 | 0.00 | 0.00 | 0.00 | 100 | 960.4 |
| 20260903125145 | 68 | 289 | 9.0 | 15.0 | 0.00 | 0.00 | 0.00 | 100 | 960.4 |
| 20260903124942 | 68 | 291 | 10.0 | 15.0 | 0.00 | 0.00 | 0.00 | 100 | 960.3 |
| 20260903124841 | 68 | 294 | 10.0 | 15.0 | 0.00 | 0.00 | 0.00 | 100 | 960.3 |
| 20260903124739 | 68 | 291 | 10.0 | 15.0 | 0.00 | 0.00 | 0.00 | 100 | 960.3 |
| 20260903124535 | 68 | 296 | 11.0 | 16.0 | 0.00 | 0.00 | 0.00 | 100 | 960.2 |
| 20260903124332 | 68 | 294 | 12.0 | 16.0 | 0.00 | 0.00 | 0.00 | 100 | 960.4 |
| 20260903124232 | 68 | 295 | 13.0 | 17.0 | 0.00 | 0.00 | 0.00 | 100 | 960.3 |
| 20260903124129 | 68 | 293 | 14.0 | 17.0 | 0.00 | 0.00 | 0.00 | 100 | 960.3 |
| 20260903123926 | 68 | 289 | 12.0 | 17.0 | 0.00 | 0.00 | 0.00 | 100 | 960.3 |
| 20260903123723 | 68 | 288 | 10.0 | 18.0 | 0.00 | 0.00 | 0.00 | 100 | 960.3 |
| 20260903123623 | 69 | 294 | 10.0 | 18.0 | 0.00 | 0.00 | 0.00 | 100 | 960.2 |
| 20260903123520 | 69 | 296 | 10.0 | 18.0 | 0.00 | 0.00 | 0.00 | 100 | 960.1 |
| 20260903123317 | 69 | 292 | 6.0 | 16.0 | 0.00 | 0.00 | 0.00 | 100 | 960.2 |
| 20260903123115 | 70 | 249 | 3.0 | 9.0 | 0.00 | 0.00 | 0.00 | 100 | 960.3 |
| 20260903123014 | 70 | 252 | 3.0 | 14.0 | 0.00 | 0.00 | 0.00 | 100 | 960.2 |
| 20260903122912 | 70 | 262 | 4.0 | 14.0 | 0.00 | 0.00 | 0.00 | 100 | 960.3 |
| 20260903122709 | 70 | 274 | 5.0 | 14.0 | 0.00 | 0.00 | 0.00 | 100 | 960.3 |
| 20260903122505 | 70 | 261 | 4.0 | 12.0 | 0.00 | 0.00 | 0.00 | 100 | 960.4 |
| 20260903122406 | 71 | 249 | 3.0 | 12.0 | 0.00 | 0.00 | 0.00 | 100 | 960.1 |
| 20260903122305 | 71 | 251 | 3.0 | 9.0 | 0.00 | 0.00 | 0.00 | 100 | 960.2 |
| 20260903122059 | 71 | 250 | 3.0 | 9.0 | 0.00 | 0.00 | 0.00 | 100 | 960.4 |
| 20260903121856 | 71 | 279 | 4.0 | 9.0 | 0.00 | 0.00 | 0.00 | 100 | 960.2 |
| 20260903121755 | 71 | 282 | 4.0 | 10.0 | 0.00 | 0.00 | 0.00 | 100 | 960.4 |
| 20260903121653 | 70 | 289 | 4.0 | 10.0 | 0.00 | 0.00 | 0.00 | 100 | 960.4 |
| 20260903121450 | 71 | 266 | 4.0 | 12.0 | 0.00 | 0.00 | 0.00 | 100 | 960.3 |
| 20260903121247 | 71 | 253 | 7.0 | 16.0 | 0.00 | 0.00 | 0.00 | 100 | 960.4 |
| 20260903121146 | 71 | 249 | 6.0 | 16.0 | 0.00 | 0.00 | 0.00 | 100 | 960.3 |
| 20260903121044 | 71 | 250 | 6.0 | 16.0 | 0.00 | 0.00 | 0.00 | 100 | 960.2 |
| 20260903120841 | 71 | 244 | 3.0 | 12.0 | 0.00 | 0.00 | 0.00 | 100 | 960.2 |
| 20260903120638 | 72 | 0 | 2.0 | 12.0 | 0.00 | 0.00 | 0.00 | 100 | 960.2 |
| 20260903120537 | 72 | 0 | 1.0 | 5.0 | 0.00 | 0.00 | 0.00 | 100 | 960.3 |
| 20260903120435 | 72 | 0 | 1.0 | 5.0 | 0.00 | 0.00 | 0.00 | 100 | 960.4 |
| 20260903120232 | 71 | 0 | 1.0 | 5.0 | 0.00 | 0.00 | 0.00 | 100 | 960.3 |
| 20260903120028 | 71 | 182 | 1.0 | 8.0 | 0.00 | 0.00 | 0.00 | 100 | 960.2 |
| 20260903115825 | 71 | 183 | 2.0 | 8.0 | 0.00 | 0.00 | 0.00 | 100 | 960.2 |
| 20260903115622 | 71 | 236 | 2.0 | 6.0 | 0.00 | 0.00 | 0.00 | 100 | 960.3 |
| 20260903115419 | 70 | 303 | 4.0 | 8.0 | 0.00 | 0.00 | 0.00 | 100 | 960.3 |
| 20260903115319 | 69 | 324 | 4.0 | 8.0 | 0.00 | 0.00 | 0.00 | 100 | 960.2 |
| 20260903115216 | 69 | 338 | 5.0 | 8.0 | 0.00 | 0.00 | 0.00 | 100 | 960.4 |
| 20260903115013 | 69 | 288 | 4.0 | 8.0 | 0.00 | 0.00 | 0.00 | 100 | 960.3 |
| 20260903114810 | 71 | 254 | 4.0 | 11.0 | 0.00 | 0.00 | 0.00 | 100 | 960.4 |
| 20260903114709 | 71 | 248 | 3.0 | 11.0 | 0.00 | 0.00 | 0.00 | 100 | 960.4 |
| 20260903114607 | 71 | 230 | 3.0 | 11.0 | 0.00 | 0.00 | 0.00 | 100 | 960.4 |
| 20260903114404 | 71 | 151 | 2.0 | 8.0 | 0.00 | 0.00 | 0.00 | 100 | 960.4 |
| 20260903114200 | 70 | 343 | 2.0 | 6.0 | 0.00 | 0.00 | 0.00 | 100 | 960.4 |
| 20260903114100 | 69 | 328 | 2.0 | 6.0 | 0.00 | 0.00 | 0.00 | 100 | 960.5 |
| 20260903113957 | 69 | 309 | 2.0 | 6.0 | 0.00 | 0.00 | 0.00 | 100 | 960.5 |
| 20260903113754 | 70 | 258 | 2.0 | 5.0 | 0.00 | 0.00 | 0.00 | 100 | 960.6 |
| 20260903113551 | 68 | 256 | 2.0 | 6.0 | 0.00 | 0.00 | 0.00 | 100 | 960.7 |
| 20260903113451 | 68 | 262 | 3.0 | 8.0 | 0.00 | 0.00 | 0.00 | 100 | 960.7 |
| 20260903113348 | 68 | 270 | 4.0 | 9.0 | 0.00 | 0.00 | 0.00 | 100 | 960.7 |
| 20260903113145 | 68 | 276 | 5.0 | 9.0 | 0.00 | 0.00 | 0.00 | 100 | 960.6 |
| 20260903112941 | 67 | 276 | 7.0 | 14.0 | 0.00 | 0.00 | 0.00 | 100 | 960.6 |
| 20260903112841 | 67 | 289 | 8.0 | 14.0 | 0.00 | 0.00 | 0.00 | 100 | 960.7 |
| 20260903112738 | 67 | 292 | 9.0 | 14.0 | 0.00 | 0.00 | 0.00 | 100 | 960.6 |
| 20260903112536 | 67 | 304 | 7.0 | 11.0 | 0.00 | 0.00 | 0.00 | 100 | 960.5 |
| 20260903112332 | 67 | 296 | 6.0 | 9.0 | 0.00 | 0.00 | 0.00 | 100 | 960.6 |
| 20260903112231 | 67 | 299 | 7.0 | 10.0 | 0.00 | 0.00 | 0.00 | 100 | 960.6 |
| 20260903112129 | 67 | 300 | 7.0 | 10.0 | 0.00 | 0.00 | 0.00 | 100 | 960.5 |
| 20260903111926 | 67 | 299 | 7.0 | 11.0 | 0.00 | 0.00 | 0.00 | 100 | 960.5 |
| 20260903111723 | 67 | 301 | 8.0 | 11.0 | 0.00 | 0.00 | 0.00 | 100 | 960.5 |
| 20260903111623 | 67 | 310 | 8.0 | 12.0 | 0.00 | 0.00 | 0.00 | 100 | 960.5 |
| 20260903111520 | 67 | 315 | 9.0 | 13.0 | 0.00 | 0.00 | 0.00 | 100 | 960.5 |
| 20260903111317 | 67 | 325 | 8.0 | 13.0 | 0.00 | 0.00 | 0.00 | 100 | 960.5 |
| 20260903111114 | 67 | 331 | 8.0 | 13.0 | 0.00 | 0.00 | 0.00 | 100 | 960.5 |
| 20260903111013 | 67 | 330 | 8.0 | 13.0 | 0.00 | 0.00 | 0.00 | 100 | 960.4 |
| 20260903110911 | 67 | 326 | 8.0 | 13.0 | 0.00 | 0.00 | 0.00 | 100 | 960.4 |
| 20260903110708 | 68 | 319 | 8.0 | 13.0 | 0.00 | 0.00 | 0.00 | 100 | 960.5 |
| 20260903110505 | 68 | 306 | 7.0 | 12.0 | 0.00 | 0.00 | 0.00 | 100 | 960.5 |
| 20260903110404 | 68 | 300 | 7.0 | 12.0 | 0.00 | 0.00 | 0.00 | 100 | 960.6 |
| 20260903110302 | 68 | 293 | 7.0 | 10.0 | 0.00 | 0.00 | 0.00 | 100 | 960.6 |
| 20260903110058 | 68 | 298 | 7.0 | 11.0 | 0.00 | 0.00 | 0.00 | 100 | 960.6 |
| 20260903105855 | 67 | 303 | 8.0 | 12.0 | 0.00 | 0.00 | 0.00 | 100 | 960.5 |
| 20260903105652 | 68 | 309 | 8.0 | 12.0 | 0.00 | 0.00 | 0.00 | 100 | 960.6 |
| 20260903105449 | 68 | 303 | 8.0 | 12.0 | 0.00 | 0.00 | 0.00 | 100 | 960.5 |
| 20260903105246 | 68 | 311 | 5.0 | 8.0 | 0.00 | 0.00 | 0.00 | 100 | 960.5 |
| 20260903105145 | 68 | 318 | 5.0 | 8.0 | 0.00 | 0.00 | 0.00 | 100 | 960.5 |
| 20260903105042 | 68 | 323 | 4.0 | 8.0 | 0.00 | 0.00 | 0.00 | 100 | 960.6 |
| 20260903104839 | 69 | 314 | 4.0 | 8.0 | 0.00 | 0.00 | 0.00 | 100 | 960.7 |
| 20260903104636 | 69 | 295 | 4.0 | 8.0 | 0.00 | 0.00 | 0.00 | 100 | 960.6 |
| 20260903104433 | 69 | 242 | 2.0 | 6.0 | 0.00 | 0.00 | 0.00 | 100 | 960.7 |
| 20260903104230 | 69 | 284 | 3.0 | 7.0 | 0.00 | 0.00 | 0.00 | 100 | 960.7 |
| 20260903104027 | 68 | 289 | 6.0 | 9.0 | 0.00 | 0.00 | 0.00 | 100 | 960.6 |
| 20260903103926 | 68 | 294 | 6.0 | 9.0 | 0.00 | 0.00 | 0.00 | 100 | 960.7 |
| 20260903103824 | 68 | 298 | 7.0 | 10.0 | 0.00 | 0.00 | 0.00 | 100 | 960.7 |
| 20260903103621 | 68 | 308 | 7.0 | 12.0 | 0.00 | 0.00 | 0.00 | 100 | 960.6 |
| 20260903103417 | 68 | 299 | 5.0 | 12.0 | 0.00 | 0.00 | 0.00 | 100 | 960.7 |
| 20260903103316 | 68 | 299 | 5.0 | 9.0 | 0.00 | 0.00 | 0.00 | 100 | 960.7 |
| 20260903103214 | 68 | 293 | 5.0 | 9.0 | 0.00 | 0.00 | 0.00 | 100 | 960.6 |
| 20260903103011 | 68 | 306 | 5.0 | 9.0 | 0.00 | 0.00 | 0.00 | 100 | 960.5 |
| 20260903102807 | 68 | 327 | 5.0 | 8.0 | 0.00 | 0.00 | 0.00 | 100 | 960.7 |
| 20260903102707 | 68 | 342 | 5.0 | 9.0 | 0.00 | 0.00 | 0.00 | 100 | 960.6 |
| 20260903102551 | 68 | 357 | 5.0 | 9.0 | 0.00 | 0.00 | 0.00 | 100 | 960.7 |
| 20260903102348 | 68 | 14 | 4.0 | 9.0 | 0.00 | 0.00 | 0.00 | 100 | 960.8 |
| 20260903102145 | 68 | 334 | 3.0 | 8.0 | 0.00 | 0.00 | 0.00 | 100 | 960.7 |
| 20260903102044 | 68 | 306 | 3.0 | 5.0 | 0.00 | 0.00 | 0.00 | 100 | 960.8 |
| 20260903101942 | 68 | 295 | 3.0 | 5.0 | 0.00 | 0.00 | 0.00 | 100 | 960.8 |
| 20260903101740 | 69 | 264 | 2.0 | 5.0 | 0.00 | 0.00 | 0.00 | 100 | 960.9 |
| 20260903101537 | 70 | 253 | 2.0 | 5.0 | 0.00 | 0.00 | 0.00 | 100 | 961.0 |
| 20260903101436 | 70 | 0 | 1.0 | 5.0 | 0.00 | 0.00 | 0.00 | 100 | 961.0 |
| 20260903101334 | 68 | 0 | 2.0 | 5.0 | 0.00 | 0.00 | 0.00 | 100 | 961.1 |
| 20260903101131 | 67 | 6 | 3.0 | 7.0 | 0.00 | 0.00 | 0.00 | 100 | 961.1 |
| 20260903100927 | 67 | 7 | 4.0 | 7.0 | 0.00 | 0.00 | 0.00 | 100 | 961.0 |
| 20260903100827 | 67 | 11 | 3.0 | 7.0 | 0.00 | 0.00 | 0.00 | 100 | 961.1 |
| 20260903100724 | 67 | 11 | 3.0 | 5.0 | 0.00 | 0.00 | 0.00 | 100 | 961.1 |
| 20260903100521 | 67 | 18 | 4.0 | 8.0 | 0.00 | 0.00 | 0.00 | 100 | 961.1 |
| 20260903100318 | 67 | 34 | 4.0 | 8.0 | 0.00 | 0.00 | 0.00 | 100 | 961.0 |
| 20260903100218 | 67 | 42 | 4.0 | 8.0 | 0.00 | 0.00 | 0.00 | 100 | 961.0 |
| 20260903100116 | 67 | 40 | 5.0 | 8.0 | 0.00 | 0.00 | 0.00 | 100 | 961.0 |
| 20260903095913 | 68 | 47 | 4.0 | 8.0 | 0.00 | 0.00 | 0.00 | 100 | 961.2 |
| 20260903095710 | 67 | 57 | 2.0 | 8.0 | 0.00 | 0.00 | 0.00 | 100 | 961.2 |
| 20260903095609 | 67 | 44 | 2.0 | 6.0 | 0.00 | 0.00 | 0.00 | 100 | 961.3 |
| 20260903095507 | 67 | 36 | 2.0 | 6.0 | 0.00 | 0.00 | 0.00 | 100 | 961.3 |
| 20260903095306 | 67 | 37 | 3.0 | 6.0 | 0.00 | 0.00 | 0.00 | 100 | 961.3 |
| 20260903095101 | 66 | 51 | 3.0 | 5.0 | 0.00 | 0.00 | 0.00 | 100 | 961.2 |
| 20260903094857 | 67 | 49 | 2.0 | 5.0 | 0.00 | 0.00 | 0.00 | 100 | 961.2 |
| 20260903094654 | 67 | 54 | 2.0 | 6.0 | 0.00 | 0.00 | 0.00 | 100 | 961.3 |
| 20260903094451 | 67 | 51 | 2.0 | 7.0 | 0.00 | 0.00 | 0.00 | 100 | 961.3 |
| 20260903094350 | 67 | 28 | 3.0 | 7.0 | 0.00 | 0.00 | 0.00 | 100 | 961.3 |
| 20260903094248 | 67 | 10 | 3.0 | 7.0 | 0.00 | 0.00 | 0.00 | 100 | 961.3 |
| 20260903094045 | 67 | 359 | 5.0 | 7.0 | 0.00 | 0.00 | 0.00 | 100 | 961.2 |
| 20260903093842 | 67 | 356 | 4.0 | 7.0 | 0.00 | 0.00 | 0.00 | 100 | 961.3 |
| 20260903093741 | 67 | 347 | 3.0 | 7.0 | 0.00 | 0.00 | 0.00 | 100 | 961.4 |
| 20260903093639 | 67 | 341 | 2.0 | 4.0 | 0.00 | 0.00 | 0.00 | 100 | 961.5 |
| 20260903093435 | 67 | 45 | 2.0 | 4.0 | 0.00 | 0.00 | 0.00 | 100 | 961.5 |
| 20260903093232 | 67 | 98 | 2.0 | 3.0 | 0.00 | 0.00 | 0.00 | 100 | 961.5 |
| 20260903093131 | 67 | 86 | 2.0 | 3.0 | 0.00 | 0.00 | 0.00 | 100 | 961.5 |
| 20260903093029 | 67 | 63 | 2.0 | 3.0 | 0.00 | 0.00 | 0.00 | 100 | 961.4 |
| 20260903092826 | 67 | 21 | 2.0 | 5.0 | 0.00 | 0.00 | 0.00 | 100 | 961.4 |
| 20260903092623 | 67 | 26 | 3.0 | 6.0 | 0.00 | 0.00 | 0.00 | 100 | 961.5 |
| 20260903092421 | 68 | 30 | 2.0 | 6.0 | 0.00 | 0.00 | 0.00 | 100 | 961.5 |
| 20260903092218 | 68 | 45 | 1.0 | 2.0 | 0.00 | 0.00 | 0.00 | 100 | 961.4 |
| 20260903092014 | 66 | 14 | 2.0 | 3.0 | 0.00 | 0.00 | 0.00 | 100 | 961.6 |
| 20260903091914 | 66 | 7 | 2.0 | 3.0 | 0.00 | 0.00 | 0.00 | 100 | 961.6 |
| 20260903091811 | 66 | 357 | 2.0 | 3.0 | 0.00 | 0.00 | 0.00 | 100 | 961.5 |
| 20260903091609 | 66 | 356 | 2.0 | 4.0 | 0.00 | 0.00 | 0.00 | 100 | 961.6 |
| 20260903091406 | 65 | 0 | 2.0 | 4.0 | 0.00 | 0.00 | 0.00 | 100 | 961.6 |
| 20260903091304 | 65 | 12 | 2.0 | 4.0 | 0.00 | 0.00 | 0.00 | 100 | 961.6 |
| 20260903091202 | 65 | 9 | 2.0 | 3.0 | 0.00 | 0.00 | 0.00 | 100 | 961.5 |
| 20260903091000 | 65 | 15 | 2.0 | 4.0 | 0.00 | 0.00 | 0.00 | 100 | 961.6 |
| 20260903090757 | 64 | 6 | 3.0 | 4.0 | 0.00 | 0.00 | 0.00 | 100 | 961.6 |
| 20260903090657 | 64 | 3 | 3.0 | 6.0 | 0.00 | 0.00 | 0.00 | 100 | 961.6 |
| 20260903090554 | 64 | 0 | 4.0 | 6.0 | 0.00 | 0.00 | 0.00 | 100 | 961.6 |
| 20260903090351 | 65 | 358 | 5.0 | 7.0 | 0.00 | 0.00 | 0.00 | 100 | 961.6 |
| 20260903090148 | 65 | 357 | 6.0 | 7.0 | 0.00 | 0.00 | 0.00 | 100 | 961.6 |
| 20260903090047 | 65 | 357 | 6.0 | 7.0 | 0.00 | 0.00 | 0.00 | 100 | 961.5 |
| 20260903085945 | 66 | 356 | 5.0 | 7.0 | 0.00 | 0.00 | 0.00 | 100 | 961.6 |
| 20260903085741 | 66 | 350 | 4.0 | 6.0 | 0.00 | 0.00 | 0.00 | 100 | 961.5 |
| 20260903085538 | 66 | 15 | 4.0 | 7.0 | 0.00 | 0.00 | 0.00 | 100 | 961.6 |
| 20260903085438 | 66 | 18 | 4.0 | 7.0 | 0.00 | 0.00 | 0.00 | 100 | 961.6 |
| 20260903085335 | 66 | 19 | 4.0 | 7.0 | 0.00 | 0.00 | 0.00 | 100 | 961.5 |
| 20260903085132 | 66 | 359 | 3.0 | 7.0 | 0.00 | 0.00 | 0.00 | 100 | 961.5 |
| 20260903084929 | 66 | 33 | 2.0 | 6.0 | 0.00 | 0.00 | 0.00 | 100 | 961.5 |
| 20260903084829 | 66 | 57 | 2.0 | 6.0 | 0.00 | 0.00 | 0.00 | 100 | 961.5 |
| 20260903084726 | 66 | 64 | 3.0 | 5.0 | 0.00 | 0.00 | 0.00 | 100 | 961.7 |
| 20260903084523 | 66 | 42 | 3.0 | 6.0 | 0.00 | 0.00 | 0.00 | 100 | 961.6 |
| 20260903084319 | 66 | 17 | 2.0 | 6.0 | 0.00 | 0.00 | 0.00 | 100 | 961.6 |
| 20260903084219 | 66 | 1 | 2.0 | 6.0 | 0.00 | 0.00 | 0.00 | 100 | 961.6 |
| 20260903084116 | 66 | 340 | 2.0 | 5.0 | 0.00 | 0.00 | 0.00 | 100 | 961.6 |
| 20260903083913 | 66 | 318 | 2.0 | 5.0 | 0.00 | 0.00 | 0.00 | 100 | 961.7 |